PEQUAWKET POND DAM: From 06/20/2019 00:00 to 08/21/2019 00:00

Date LAKE ELEVATION [FT] PRECIPITATION INCREMENT [IN] PRECIPITATION DAILY TOTAL [IN] AIR TEMPERATURE [F] RESERVOIR RELEASE [CFS]
08/19/2019 19:00 -- -- -- -- 32.0
08/19/2019 18:00 457.38 0.19 -- 78.3 31.5
08/19/2019 17:00 457.37 0.00 -- 82.6 29.8
08/19/2019 16:00 457.36 0.00 -- 85.0 29.3
08/19/2019 15:00 457.36 0.00 -- 86.5 28.8
08/19/2019 14:00 457.35 0.00 -- 84.5 32.8
08/19/2019 13:00 457.35 0.00 -- 82.9 42.5
08/19/2019 12:00 457.34 0.00 -- 83.5 42.8
08/19/2019 11:00 457.34 0.00 -- 76.8 43.3
08/19/2019 10:00 457.34 0.00 -- 73.9 43.0
08/19/2019 09:00 457.35 0.00 -- 70.7 43.0
08/19/2019 08:00 457.35 0.00 -- 69.1 44.0
08/19/2019 07:00 457.35 0.00 -- 68.8 44.3
08/19/2019 06:00 457.36 0.00 -- 68.8 45.0
08/19/2019 05:00 457.36 0.00 -- 68.6 45.3
08/19/2019 04:00 457.37 0.00 -- 68.4 46.0
08/19/2019 03:00 457.37 0.04 -- 69.0 46.3
08/19/2019 02:00 457.37 0.00 -- 70.6 46.5
08/19/2019 01:00 457.38 0.00 -- 71.4 47.0
08/19/2019 00:00 457.38 0.00 -- 72.5 47.3
08/18/2019 23:00 457.38 0.00 -- 71.9 48.0
08/18/2019 22:00 457.39 0.00 -- 73.3 48.0
08/18/2019 21:00 457.39 0.00 -- 74.8 48.0
08/18/2019 20:00 457.39 0.00 -- 80.6 48.5
08/18/2019 19:00 457.39 0.00 -- 84.2 48.3
08/18/2019 18:00 457.39 0.00 -- 86.1 48.8
08/18/2019 17:00 457.39 0.00 -- 85.2 48.0
08/18/2019 16:00 457.38 0.00 -- 83.1 47.5
08/18/2019 15:00 457.38 0.01 -- 80.3 46.5
08/18/2019 14:00 457.37 0.00 -- 79.3 46.0
08/18/2019 13:00 457.37 0.00 -- 72.5 46.0
08/18/2019 12:00 457.37 0.00 -- 71.1 45.0
08/18/2019 11:00 457.36 0.00 -- 68.9 44.5
08/18/2019 10:00 457.35 0.00 -- 67.1 43.5
08/18/2019 09:00 457.34 0.00 -- 65.6 42.3
08/18/2019 08:00 457.33 0.00 -- 65.4 41.3
08/18/2019 07:00 457.32 0.00 -- 65.0 40.3
08/18/2019 06:00 457.31 0.00 -- 65.8 39.3
08/18/2019 05:00 457.30 0.00 -- 66.1 37.8
08/18/2019 04:00 457.29 0.00 -- 66.8 36.8
08/18/2019 03:00 457.28 0.00 -- 67.2 36.0
08/18/2019 02:00 457.27 0.00 -- 67.7 35.0
08/18/2019 01:00 457.27 0.01 -- 68.1 35.0
08/18/2019 00:00 457.27 0.20 0.02 67.7 34.3
08/17/2019 23:00 457.25 0.28 -- 68.2 31.3
08/17/2019 22:00 457.22 0.00 -- 69.3 30.0
08/17/2019 21:00 457.22 0.00 -- 69.7 30.0
08/17/2019 20:00 457.22 0.00 -- 70.1 30.0
08/17/2019 19:00 457.22 0.00 -- 70.8 30.0
08/17/2019 18:00 457.22 0.00 -- 71.3 30.8
08/17/2019 17:00 457.22 0.00 -- 71.3 30.0
08/17/2019 16:00 457.22 0.00 -- 70.3 30.0
08/17/2019 15:00 457.22 0.00 -- 70.8 30.3
08/17/2019 14:00 457.23 0.00 -- 72.4 30.8
08/17/2019 13:00 457.22 0.00 -- 71.7 30.0
08/17/2019 12:00 457.22 0.00 -- 70.5 30.0
08/17/2019 11:00 457.22 0.00 -- 68.5 30.0
08/17/2019 10:00 457.22 0.00 -- 66.8 30.0
08/17/2019 09:00 457.22 0.00 -- 65.5 30.0
08/17/2019 08:00 457.22 0.00 -- 64.5 29.8
08/17/2019 07:00 457.21 0.01 -- 64.2 29.0
08/17/2019 06:00 457.21 0.00 -- 65.0 29.0
08/17/2019 05:00 457.21 0.00 -- 65.4 29.0
08/17/2019 04:00 457.21 0.00 -- 65.5 28.5
08/17/2019 03:00 457.20 0.00 -- 65.8 28.0
08/17/2019 02:00 457.20 0.00 -- 65.8 28.0
08/17/2019 01:00 457.20 0.00 -- 66.3 28.0
08/17/2019 00:00 457.19 0.00 0.49 67.2 27.3
08/16/2019 23:00 457.19 0.00 -- 67.2 27.0
08/16/2019 22:00 457.19 0.00 -- 70.3 27.0
08/16/2019 21:00 457.18 0.00 -- 71.8 26.3
08/16/2019 20:00 457.18 0.00 -- 75.1 26.0
08/16/2019 19:00 457.17 0.00 -- 77.5 26.0
08/16/2019 18:00 457.17 0.00 -- 77.7 25.0
08/16/2019 17:00 457.16 0.00 -- 76.9 24.5
08/16/2019 16:00 457.16 0.00 -- 77.1 23.8
08/16/2019 15:00 457.15 0.00 -- 75.2 23.0
08/16/2019 14:00 457.14 0.00 -- 74.4 22.3
08/16/2019 13:00 457.13 0.00 -- 73.1 21.5
08/16/2019 12:00 457.12 0.00 -- 68.0 21.0
08/16/2019 11:00 457.12 0.00 -- 65.5 21.0
08/16/2019 10:00 457.11 0.00 -- 64.3 20.3
08/16/2019 09:00 457.11 0.01 -- 62.8 20.0
08/16/2019 08:00 457.10 0.05 -- 62.6 19.3
08/16/2019 07:00 457.09 0.24 -- 63.1 18.8
08/16/2019 06:00 457.07 0.42 -- 63.0 15.8
08/16/2019 05:00 457.03 0.31 -- 63.4 13.0
08/16/2019 04:00 457.00 0.02 -- 63.6 11.8
08/16/2019 03:00 457.00 0.00 -- 64.7 11.3
08/16/2019 02:00 457.00 0.00 -- 64.3 12.0
08/16/2019 01:00 457.00 0.00 -- 65.2 12.0
08/16/2019 00:00 457.00 0.00 1.05 66.0 12.0
08/15/2019 23:00 457.00 0.00 -- 68.3 12.0
08/15/2019 22:00 457.00 0.00 -- 70.2 12.0
08/15/2019 21:00 457.00 0.00 -- 73.1 12.0
08/15/2019 20:00 457.01 0.00 -- 78.5 12.0
08/15/2019 19:00 457.02 0.00 -- 81.7 12.3
08/15/2019 18:00 457.01 0.00 -- 81.1 12.3
08/15/2019 17:00 457.01 0.00 -- 81.8 12.5
08/15/2019 16:00 457.01 0.00 -- 80.7 12.0
08/15/2019 15:00 457.01 0.00 -- 82.1 12.0
08/15/2019 14:00 457.01 0.00 -- 77.8 12.0
08/15/2019 13:00 457.01 0.00 -- 75.5 12.0
08/15/2019 12:00 457.01 0.00 -- 75.3 12.0
08/15/2019 11:00 457.01 0.00 -- 73.3 12.0
08/15/2019 10:00 457.01 0.00 -- 68.0 12.0
08/15/2019 09:00 457.01 0.00 -- 62.3 12.0
08/15/2019 08:00 457.01 0.00 -- 57.9 12.0
08/15/2019 07:00 457.01 0.00 -- 58.3 12.0
08/15/2019 06:00 457.01 0.00 -- 59.5 12.0
08/15/2019 05:00 457.01 0.00 -- 61.2 12.3
08/15/2019 04:00 457.02 0.00 -- 63.7 12.8
08/15/2019 03:00 457.02 0.00 -- 61.7 13.0
08/15/2019 02:00 457.02 0.00 -- 62.1 12.3
08/15/2019 01:00 457.02 0.00 -- 64.0 12.5
08/15/2019 00:00 457.02 0.00 0.00 65.2 12.8
08/14/2019 23:00 457.02 0.00 -- 67.2 13.0
08/14/2019 22:00 457.02 0.00 -- 69.0 13.0
08/14/2019 21:00 457.02 0.00 -- 71.4 13.0
08/14/2019 20:00 457.03 0.00 -- 73.0 13.0
08/14/2019 19:00 457.02 0.00 -- 80.2 13.0
08/14/2019 18:00 457.02 0.00 -- 74.8 13.0
08/14/2019 17:00 457.03 0.00 -- 77.5 13.0
08/14/2019 16:00 457.03 0.00 -- 80.2 13.0
08/14/2019 15:00 457.02 0.00 -- 82.2 13.0
08/14/2019 14:00 457.02 0.00 -- 79.5 13.0
08/14/2019 13:00 457.02 0.00 -- 76.2 13.0
08/14/2019 12:00 457.02 0.00 -- 75.9 13.0
08/14/2019 11:00 457.02 0.00 -- 72.7 13.0
08/14/2019 10:00 457.02 0.00 -- 69.0 13.0
08/14/2019 09:00 457.02 0.00 -- 63.0 13.0
08/14/2019 08:00 457.03 0.00 -- 59.4 13.0
08/14/2019 07:00 457.02 0.00 -- 58.6 13.0
08/14/2019 06:00 457.03 0.00 -- 59.0 13.0
08/14/2019 05:00 457.03 0.00 -- 60.4 13.0
08/14/2019 04:00 457.03 0.00 -- 61.9 13.3
08/14/2019 03:00 457.03 0.00 -- 62.3 13.3
08/14/2019 02:00 457.03 0.00 -- 63.7 14.0
08/14/2019 01:00 457.03 0.00 -- 65.5 14.0
08/14/2019 00:00 457.03 0.00 0.00 67.2 14.0
08/13/2019 23:00 457.04 0.00 -- 68.7 14.0
08/13/2019 22:00 457.04 0.00 -- 72.8 14.0
08/13/2019 21:00 457.04 0.00 -- 73.8 14.0
08/13/2019 20:00 457.04 0.00 -- 77.9 14.0
08/13/2019 19:00 457.04 0.00 -- 80.1 14.0
08/13/2019 18:00 457.04 0.00 -- 80.1 14.0
08/13/2019 17:00 457.05 0.00 -- 80.1 14.0
08/13/2019 16:00 457.05 0.00 -- 80.6 14.0
08/13/2019 15:00 457.04 0.00 -- 82.8 14.0
08/13/2019 14:00 457.04 0.00 -- 80.6 14.0
08/13/2019 13:00 457.04 0.00 -- 79.2 14.0
08/13/2019 12:00 457.04 0.00 -- 75.0 14.0
08/13/2019 11:00 457.04 0.00 -- 72.0 14.0
08/13/2019 10:00 457.04 0.00 -- 69.9 14.0
08/13/2019 09:00 457.04 0.00 -- 67.2 14.0
08/13/2019 08:00 457.04 0.00 -- 65.1 14.0
08/13/2019 07:00 457.04 0.00 -- 66.2 14.0
08/13/2019 06:00 457.04 0.00 -- 66.2 14.0
08/13/2019 05:00 457.04 0.00 -- 68.7 14.0
08/13/2019 04:00 457.05 0.00 -- 70.2 14.0
08/13/2019 03:00 457.05 0.00 -- 69.2 14.0
08/13/2019 02:00 457.04 0.00 -- 66.6 14.0
08/13/2019 01:00 457.05 0.00 -- 66.6 14.8
08/13/2019 00:00 457.05 0.00 0.00 68.7 15.0
08/12/2019 23:00 457.05 0.00 -- 71.4 15.0
08/12/2019 22:00 457.05 0.00 -- 72.6 15.5
08/12/2019 21:00 457.06 0.00 -- 75.9 15.8
08/12/2019 20:00 457.06 0.00 -- 79.6 16.3
08/12/2019 19:00 457.06 0.00 -- 81.2 16.3
08/12/2019 18:00 457.06 0.00 -- 81.7 16.0
08/12/2019 17:00 457.06 0.00 -- 83.3 16.8
08/12/2019 16:00 457.06 0.00 -- 86.1 16.5
08/12/2019 15:00 457.06 0.00 -- 84.6 16.3
08/12/2019 14:00 457.06 0.00 -- 82.1 16.0
08/12/2019 13:00 457.06 0.00 -- 83.1 15.8
08/12/2019 12:00 457.06 0.00 -- 79.8 15.8
08/12/2019 11:00 457.05 0.00 -- 75.5 15.3
08/12/2019 10:00 457.06 0.00 -- 71.8 15.8
08/12/2019 09:00 457.05 0.00 -- 66.0 15.0
08/12/2019 08:00 457.05 0.00 -- 61.9 15.0
08/12/2019 07:00 457.05 0.00 -- 63.2 15.3
08/12/2019 06:00 457.05 0.00 -- 64.1 14.8
08/12/2019 05:00 457.05 0.00 -- 64.4 15.0
08/12/2019 04:00 457.05 0.00 -- 62.4 15.0
08/12/2019 03:00 457.05 0.00 -- 62.0 15.0
08/12/2019 02:00 457.06 0.00 -- 62.9 15.5
08/12/2019 01:00 457.05 0.00 -- 62.0 15.3
08/12/2019 00:00 457.06 0.00 0.00 63.2 15.8
08/11/2019 23:00 457.06 0.00 -- 65.0 16.3
08/11/2019 22:00 457.06 0.00 -- 67.4 16.0
08/11/2019 21:00 457.06 0.00 -- 70.2 16.5
08/11/2019 20:00 457.06 0.00 -- 71.4 16.0
08/11/2019 19:00 457.06 0.00 -- 73.3 16.3
08/11/2019 18:00 457.07 0.00 -- 75.6 17.0
08/11/2019 17:00 457.07 0.00 -- 76.8 17.0
08/11/2019 16:00 457.06 0.00 -- 76.6 16.8
08/11/2019 15:00 457.07 0.00 -- 76.5 16.5
08/11/2019 14:00 457.06 0.00 -- 73.6 16.8
08/11/2019 13:00 457.06 0.00 -- 69.7 16.3
08/11/2019 12:00 457.07 0.00 -- 71.8 16.5
08/11/2019 11:00 457.06 0.00 -- 69.0 16.3
08/11/2019 10:00 457.06 0.00 -- 64.9 16.5
08/11/2019 09:00 457.06 0.00 -- 60.8 16.5
08/11/2019 08:00 457.07 0.00 -- 57.1 16.8
08/11/2019 07:00 457.07 0.00 -- 55.0 17.0
08/11/2019 06:00 457.07 0.00 -- 54.9 17.0
08/11/2019 05:00 457.07 0.00 -- 55.0 17.0
08/11/2019 04:00 457.06 0.00 -- 55.2 17.0
08/11/2019 03:00 457.07 0.00 -- 56.7 17.0
08/11/2019 02:00 457.07 0.00 -- 55.9 17.0
08/11/2019 01:00 457.07 0.00 -- 58.2 17.0
08/11/2019 00:00 457.07 0.00 0.00 58.0 17.5
08/10/2019 23:00 457.07 0.00 -- 56.4 17.3
08/10/2019 22:00 457.07 0.00 -- 58.6 17.8
08/10/2019 21:00 457.08 0.00 -- 61.5 18.0
08/10/2019 20:00 457.08 0.01 -- 60.4 18.0
08/10/2019 19:00 457.08 0.01 -- 61.2 18.3
08/10/2019 18:00 457.09 0.00 -- 68.3 18.8
08/10/2019 17:00 457.08 0.00 -- 74.9 18.0
08/10/2019 16:00 457.09 0.00 -- 68.9 18.8
08/10/2019 15:00 457.10 0.00 -- 73.0 19.0
08/10/2019 14:00 457.10 0.00 -- 75.0 18.8
08/10/2019 13:00 457.09 0.00 -- 74.2 19.0
08/10/2019 12:00 457.09 0.00 -- 71.3 18.8
08/10/2019 11:00 457.09 0.00 -- 71.0 18.5
08/10/2019 10:00 457.08 0.00 -- 68.6 18.3
08/10/2019 09:00 457.09 0.00 -- 63.5 18.8
08/10/2019 08:00 457.09 0.00 -- 59.5 18.0
08/10/2019 07:00 457.09 0.00 -- 58.7 18.8
08/10/2019 06:00 457.09 0.00 -- 57.5 18.8
08/10/2019 05:00 457.09 0.00 -- 57.5 19.0
08/10/2019 04:00 457.09 0.00 -- 58.5 19.0
08/10/2019 03:00 457.09 0.00 -- 60.6 19.0
08/10/2019 02:00 457.10 0.00 -- 63.2 19.0
08/10/2019 01:00 457.10 0.00 -- 65.5 19.3
08/10/2019 00:00 457.10 0.00 0.02 67.2 19.8
08/09/2019 23:00 457.11 0.00 -- 69.1 20.0
08/09/2019 22:00 457.11 0.00 -- 70.1 20.3
08/09/2019 21:00 457.11 0.00 -- 73.6 20.0
08/09/2019 20:00 457.11 0.00 -- 78.4 21.0
08/09/2019 19:00 457.12 0.00 -- 81.4 20.8
08/09/2019 18:00 457.11 0.00 -- 80.3 20.8
08/09/2019 17:00 457.12 0.00 -- 79.3 21.0
08/09/2019 16:00 457.11 0.00 -- 78.8 20.5
08/09/2019 15:00 457.12 0.00 -- 78.7 21.0
08/09/2019 14:00 457.11 0.00 -- 79.6 20.0
08/09/2019 13:00 457.11 0.00 -- 78.6 20.0
08/09/2019 12:00 457.11 0.00 -- 77.6 20.0
08/09/2019 11:00 457.11 0.00 -- 75.0 20.3
08/09/2019 10:00 457.11 0.00 -- 73.6 20.0
08/09/2019 09:00 457.11 0.00 -- 69.3 20.0
08/09/2019 08:00 457.11 0.00 -- 63.9 20.0
08/09/2019 07:00 457.11 0.00 -- 63.4 20.3
08/09/2019 06:00 457.11 0.00 -- 62.2 20.3
08/09/2019 05:00 457.11 0.00 -- 63.4 20.5
08/09/2019 04:00 457.12 0.00 -- 63.5 20.8
08/09/2019 03:00 457.12 0.00 -- 64.2 21.0
08/09/2019 02:00 457.12 0.00 -- 65.1 21.0
08/09/2019 01:00 457.12 0.00 -- 65.8 21.0
08/09/2019 00:00 457.12 0.00 0.00 67.3 21.0
08/08/2019 23:00 457.12 0.00 -- 68.6 21.0
08/08/2019 22:00 457.13 0.00 -- 69.5 21.3
08/08/2019 21:00 457.12 0.01 -- 71.9 21.5
08/08/2019 20:00 457.13 0.00 -- 78.3 22.0
08/08/2019 19:00 457.13 0.00 -- 83.2 22.0
08/08/2019 18:00 457.13 0.00 -- 84.6 21.5
08/08/2019 17:00 457.13 0.00 -- 82.7 22.0
08/08/2019 16:00 457.13 0.00 -- 77.4 21.5
08/08/2019 15:00 457.12 0.01 -- 77.1 21.0
08/08/2019 14:00 457.13 0.00 -- 74.6 21.0
08/08/2019 13:00 457.12 0.00 -- 76.6 21.0
08/08/2019 12:00 457.12 0.01 -- 73.9 21.0
08/08/2019 11:00 457.12 0.00 -- 70.8 21.0
08/08/2019 10:00 457.12 0.00 -- 68.9 21.0
08/08/2019 09:00 457.12 0.00 -- 68.5 21.0
08/08/2019 08:00 457.12 0.00 -- 68.1 21.0
08/08/2019 07:00 457.12 0.02 -- 67.4 21.0
08/08/2019 06:00 457.12 0.00 -- 67.4 21.0
08/08/2019 05:00 457.12 0.00 -- 67.7 21.0
08/08/2019 04:00 457.12 0.00 -- 68.5 21.0
08/08/2019 03:00 457.12 0.01 -- 68.6 21.0
08/08/2019 02:00 457.12 0.01 -- 69.3 21.0
08/08/2019 01:00 457.12 0.01 -- 68.9 21.0
08/08/2019 00:00 457.12 0.03 0.08 68.7 21.0
08/07/2019 23:00 457.12 0.03 -- 68.3 21.0
08/07/2019 22:00 457.12 0.00 -- 68.2 21.0
08/07/2019 21:00 457.11 0.01 -- 67.8 21.0
08/07/2019 20:00 457.12 0.31 -- 70.0 20.8
08/07/2019 19:00 457.09 0.19 -- 73.9 17.8
08/07/2019 18:00 457.07 0.06 -- 75.7 17.0
08/07/2019 17:00 457.06 0.00 -- 82.9 16.0
08/07/2019 16:00 457.06 0.00 -- 84.5 15.8
08/07/2019 15:00 457.05 0.00 -- 81.1 15.0
08/07/2019 14:00 457.05 0.00 -- 79.9 15.0
08/07/2019 13:00 457.05 0.00 -- 77.8 15.0
08/07/2019 12:00 457.05 0.00 -- 76.4 15.0
08/07/2019 11:00 457.05 0.00 -- 75.5 15.0
08/07/2019 10:00 457.05 0.00 -- 71.7 15.0
08/07/2019 09:00 457.05 0.00 -- 69.4 15.0
08/07/2019 08:00 457.05 0.00 -- 69.1 15.0
08/07/2019 07:00 457.05 0.00 -- 68.5 15.0
08/07/2019 06:00 457.06 0.00 -- 68.8 15.8
08/07/2019 05:00 457.06 0.00 -- 68.8 16.0
08/07/2019 04:00 457.06 0.00 -- 68.2 16.0
08/07/2019 03:00 457.06 0.00 -- 68.4 16.0
08/07/2019 02:00 457.06 0.00 -- 68.9 16.0
08/07/2019 01:00 457.06 0.00 -- 69.5 16.0
08/07/2019 00:00 457.06 0.00 0.63 70.0 16.8
08/06/2019 23:00 457.06 0.00 -- 71.3 17.0
08/06/2019 22:00 457.06 0.00 -- 73.4 17.0
08/06/2019 21:00 457.07 0.00 -- 75.8 17.0
08/06/2019 20:00 457.08 0.00 -- 78.6 17.3
08/06/2019 19:00 457.06 0.00 -- 82.8 17.3
08/06/2019 18:00 457.07 0.00 -- 84.7 17.3
08/06/2019 17:00 457.07 0.00 -- 86.4 17.5
08/06/2019 16:00 457.07 0.00 -- 86.9 16.8
08/06/2019 15:00 457.06 0.00 -- 84.3 16.8
08/06/2019 14:00 457.07 0.00 -- 83.2 17.0
08/06/2019 13:00 457.07 0.00 -- 79.0 17.0
08/06/2019 12:00 457.06 0.00 -- 77.9 16.8
08/06/2019 11:00 457.06 0.00 -- 74.3 16.0
08/06/2019 10:00 457.06 0.00 -- 66.1 16.0
08/06/2019 09:00 457.06 0.00 -- 61.7 16.0
08/06/2019 08:00 457.06 0.00 -- 55.0 16.0
08/06/2019 07:00 457.06 0.00 -- 53.7 16.0
08/06/2019 06:00 457.06 0.00 -- 54.2 16.0
08/06/2019 05:00 457.06 0.00 -- 55.6 16.8
08/06/2019 04:00 457.06 0.00 -- 56.5 17.0
08/06/2019 03:00 457.06 0.00 -- 57.9 17.0
08/06/2019 02:00 457.07 0.00 -- 60.5 17.0
08/06/2019 01:00 457.07 0.00 -- 63.0 17.0
08/06/2019 00:00 457.07 0.00 0.00 63.0 17.0
08/05/2019 23:00 457.07 0.00 -- 65.4 17.0
08/05/2019 22:00 457.07 0.00 -- 69.0 17.5
08/05/2019 21:00 457.08 0.00 -- 73.7 18.0
08/05/2019 20:00 457.08 0.00 -- 79.4 18.0
08/05/2019 19:00 457.08 0.00 -- 82.5 18.3
08/05/2019 18:00 457.07 0.00 -- 82.5 18.0
08/05/2019 17:00 457.08 0.00 -- 81.3 18.0
08/05/2019 16:00 457.08 0.00 -- 82.5 18.0
08/05/2019 15:00 457.08 0.00 -- 80.0 17.5
08/05/2019 14:00 457.07 0.00 -- 79.6 17.3
08/05/2019 13:00 457.07 0.00 -- 75.1 17.0
08/05/2019 12:00 457.07 0.00 -- 71.6 17.0
08/05/2019 11:00 457.07 0.00 -- 69.7 17.0
08/05/2019 10:00 457.07 0.00 -- 66.7 17.0
08/05/2019 09:00 457.07 0.00 -- 57.9 17.0
08/05/2019 08:00 457.07 0.00 -- 52.4 17.0
08/05/2019 07:00 457.07 0.00 -- 52.3 17.0
08/05/2019 06:00 457.07 0.00 -- 51.3 17.0
08/05/2019 05:00 457.07 0.00 -- 52.5 17.0
08/05/2019 04:00 457.07 0.00 -- 53.0 17.0
08/05/2019 03:00 457.07 0.00 -- 54.5 17.0
08/05/2019 02:00 457.07 0.00 -- 56.2 17.3
08/05/2019 01:00 457.07 0.00 -- 59.3 17.5
08/05/2019 00:00 457.07 0.00 0.00 62.3 17.8
08/04/2019 23:00 457.08 0.00 -- 64.2 18.0
08/04/2019 22:00 457.08 0.00 -- 67.7 18.0
08/04/2019 21:00 457.08 0.00 -- 70.3 18.0
08/04/2019 20:00 457.08 0.00 -- 74.1 18.0
08/04/2019 19:00 457.08 0.00 -- 76.8 18.0
08/04/2019 18:00 457.08 0.00 -- 80.0 18.0
08/04/2019 17:00 457.08 0.00 -- 80.8 17.8
08/04/2019 16:00 457.08 0.00 -- 79.1 17.8
08/04/2019 15:00 457.08 0.00 -- 79.3 18.0
08/04/2019 14:00 457.09 0.00 -- 78.5 18.0
08/04/2019 13:00 457.08 0.00 -- 79.2 17.5
08/04/2019 12:00 457.08 0.00 -- 77.0 18.0
08/04/2019 11:00 457.08 0.00 -- 75.1 18.0
08/04/2019 10:00 457.08 0.00 -- 72.6 18.0
08/04/2019 09:00 457.07 0.00 -- 70.8 17.0
08/04/2019 08:00 457.08 0.00 -- 64.6 17.5
08/04/2019 07:00 457.07 0.00 -- 62.8 17.0
08/04/2019 06:00 457.08 0.00 -- 63.6 17.8
08/04/2019 05:00 457.07 0.00 -- 63.8 17.8
08/04/2019 04:00 457.08 0.00 -- 63.3 18.0
08/04/2019 03:00 457.07 0.00 -- 63.2 17.8
08/04/2019 02:00 457.08 0.00 -- 65.0 18.0
08/04/2019 01:00 457.08 0.00 -- 66.5 18.0
08/04/2019 00:00 457.08 0.00 0.00 67.1 18.0
08/03/2019 23:00 457.08 0.00 -- 69.4 18.0
08/03/2019 22:00 457.08 0.00 -- 72.6 18.0
08/03/2019 21:00 457.08 0.00 -- 75.6 18.0
08/03/2019 20:00 457.08 0.00 -- 83.0 18.0
08/03/2019 19:00 457.08 0.00 -- 86.1 18.0
08/03/2019 18:00 457.09 0.00 -- 87.2 18.0
08/03/2019 17:00 457.08 0.00 -- 88.1 18.3
08/03/2019 16:00 457.09 0.00 -- 85.2 18.3
08/03/2019 15:00 457.08 0.00 -- 84.5 18.0
08/03/2019 14:00 457.07 0.00 -- 80.9 17.5
08/03/2019 13:00 457.07 0.00 -- 80.7 17.0
08/03/2019 12:00 457.07 0.00 -- 76.1 16.3
08/03/2019 11:00 457.06 0.00 -- 72.2 16.0
08/03/2019 10:00 457.05 0.00 -- 66.4 15.3
08/03/2019 09:00 457.05 0.00 -- 61.9 15.0
08/03/2019 08:00 457.05 0.00 -- 57.2 15.0
08/03/2019 07:00 457.05 0.00 -- 56.1 15.0
08/03/2019 06:00 457.05 0.00 -- 55.9 14.5
08/03/2019 05:00 457.05 0.00 -- 55.9 14.0
08/03/2019 04:00 457.05 0.00 -- 57.9 14.0
08/03/2019 03:00 457.04 0.00 -- 60.4 14.0
08/03/2019 02:00 457.04 0.00 -- 61.0 14.0
08/03/2019 01:00 457.04 0.00 -- 62.5 14.0
08/03/2019 00:00 457.04 0.00 0.00 64.4 14.0
08/02/2019 23:00 457.04 0.00 -- 66.0 14.0
08/02/2019 22:00 457.04 0.00 -- 70.0 14.0
08/02/2019 21:00 457.04 0.00 -- 77.4 14.0
08/02/2019 20:00 457.04 0.00 -- 81.0 14.0
08/02/2019 19:00 457.04 0.00 -- 83.0 13.8
08/02/2019 18:00 457.02 0.00 -- 85.8 13.3
08/02/2019 17:00 457.02 0.00 -- 85.8 13.0
08/02/2019 16:00 457.02 0.00 -- 84.5 12.0
08/02/2019 15:00 457.01 0.00 -- 84.3 12.0
08/02/2019 14:00 457.00 0.00 -- 83.0 12.0
08/02/2019 13:00 457.00 0.00 -- 82.9 11.3
08/02/2019 12:00 456.99 0.00 -- 82.2 11.0
08/02/2019 11:00 456.99 0.00 -- 76.4 11.0
08/02/2019 10:00 456.98 0.00 -- 68.6 10.0
08/02/2019 09:00 456.97 0.00 -- 61.8 10.0
08/02/2019 08:00 456.97 0.00 -- 53.6 10.0
08/02/2019 07:00 456.96 0.00 -- 56.3 10.0
08/02/2019 06:00 456.96 0.00 -- 56.2 9.3
08/02/2019 05:00 456.95 0.00 -- 57.1 9.0
08/02/2019 04:00 456.95 0.00 -- 59.3 9.0
08/02/2019 03:00 456.94 0.00 -- 58.9 9.0
08/02/2019 02:00 456.94 0.00 -- 58.4 9.0
08/02/2019 01:00 456.93 0.00 -- 59.3 9.0
08/02/2019 00:00 456.93 0.00 0.00 62.1 9.0
08/01/2019 23:00 456.92 0.00 -- 64.5 8.5
08/01/2019 22:00 456.91 0.00 -- 69.0 8.0
08/01/2019 21:00 456.91 0.00 -- 72.8 8.0
08/01/2019 20:00 456.91 0.00 -- 76.8 8.0
08/01/2019 19:00 456.90 0.00 -- 79.7 8.0
08/01/2019 18:00 456.89 0.00 -- 83.5 8.0
08/01/2019 17:00 456.89 0.00 -- 84.1 8.0
08/01/2019 16:00 456.87 0.00 -- 84.5 7.5
08/01/2019 15:00 456.86 0.00 -- 82.6 10.8
08/01/2019 14:00 456.85 0.00 -- 82.0 22.0
08/01/2019 13:00 456.86 0.00 -- 81.1 21.8
08/01/2019 12:00 456.85 0.00 -- 79.8 22.0
08/01/2019 11:00 456.85 0.00 -- 78.7 21.3
08/01/2019 10:00 456.85 0.00 -- 74.9 21.0
08/01/2019 09:00 456.85 0.00 -- 69.6 21.0
08/01/2019 08:00 456.85 0.00 -- 63.4 21.3
08/01/2019 07:00 456.85 0.00 -- 63.5 22.0
08/01/2019 06:00 456.85 0.00 -- 64.1 22.0
08/01/2019 05:00 456.85 0.00 -- 64.4 22.0
08/01/2019 04:00 456.86 0.00 -- 65.1 22.0
08/01/2019 03:00 456.86 0.00 -- 65.7 22.0
08/01/2019 02:00 456.86 0.00 -- 64.9 22.0
08/01/2019 01:00 456.86 0.00 -- 66.3 22.0
08/01/2019 00:00 456.86 0.00 0.00 67.0 22.0
07/31/2019 23:00 456.87 0.00 -- 67.9 22.3
07/31/2019 22:00 456.87 0.00 -- 71.2 22.0
07/31/2019 21:00 456.87 0.00 -- 72.9 23.0
07/31/2019 20:00 456.88 0.00 -- 77.9 23.3
07/31/2019 19:00 456.88 0.00 -- 78.7 23.0
07/31/2019 18:00 456.88 0.00 -- 80.8 23.3
07/31/2019 17:00 456.89 0.00 -- 82.7 23.0
07/31/2019 16:00 456.88 0.00 -- 84.4 23.0
07/31/2019 15:00 456.88 0.00 -- 81.5 23.0
07/31/2019 14:00 456.88 0.00 -- 80.3 23.0
07/31/2019 13:00 456.89 0.00 -- 80.4 23.0
07/31/2019 12:00 456.89 0.00 -- 81.3 23.3
07/31/2019 11:00 456.88 0.00 -- 79.9 23.0
07/31/2019 10:00 456.88 0.00 -- 75.6 23.0
07/31/2019 09:00 456.88 0.00 -- 69.1 23.0
07/31/2019 08:00 456.88 0.00 -- 67.5 23.0
07/31/2019 07:00 456.88 0.00 -- 65.6 23.0
07/31/2019 06:00 456.88 0.00 -- 66.1 23.0
07/31/2019 05:00 456.88 0.00 -- 66.6 23.3
07/31/2019 04:00 456.89 0.00 -- 67.8 23.8
07/31/2019 03:00 456.89 0.00 -- 69.6 24.0
07/31/2019 02:00 456.89 0.00 -- 70.0 24.0
07/31/2019 01:00 456.89 0.00 -- 71.1 24.0
07/31/2019 00:00 456.89 0.00 0.00 71.2 24.0
07/30/2019 23:00 456.90 0.00 -- 74.8 24.8
07/30/2019 22:00 456.90 0.00 -- 81.9 24.3
07/30/2019 21:00 456.90 0.00 -- 85.7 24.8
07/30/2019 20:00 456.90 0.00 -- 89.4 25.0
07/30/2019 19:00 456.91 0.00 -- 91.9 25.0
07/30/2019 18:00 456.91 0.00 -- 92.7 25.0
07/30/2019 17:00 456.92 0.00 -- 92.0 25.3
07/30/2019 16:00 456.92 0.00 -- 92.2 25.5
07/30/2019 15:00 456.93 0.00 -- 91.7 25.3
07/30/2019 14:00 456.92 0.00 -- 91.4 25.0
07/30/2019 13:00 456.91 0.00 -- 89.7 25.0
07/30/2019 12:00 456.91 0.00 -- 85.9 25.0
07/30/2019 11:00 456.91 0.00 -- 81.6 25.0
07/30/2019 10:00 456.91 0.00 -- 76.4 25.0
07/30/2019 09:00 456.90 0.00 -- 71.2 25.0
07/30/2019 08:00 456.91 0.00 -- 65.9 25.0
07/30/2019 07:00 456.91 0.00 -- 64.8 25.0
07/30/2019 06:00 456.91 0.00 -- 64.6 25.0
07/30/2019 05:00 456.91 0.00 -- 65.5 25.0
07/30/2019 04:00 456.91 0.00 -- 65.4 25.0
07/30/2019 03:00 456.91 0.00 -- 67.4 25.0
07/30/2019 02:00 456.92 0.00 -- 68.5 25.5
07/30/2019 01:00 456.92 0.00 -- 69.8 26.0
07/30/2019 00:00 456.92 0.00 0.00 71.2 26.0
07/29/2019 23:00 456.93 0.00 -- 71.3 26.0
07/29/2019 22:00 456.93 0.00 -- 75.0 26.0
07/29/2019 21:00 456.93 0.00 -- 80.7 26.0
07/29/2019 20:00 456.93 0.00 -- 86.3 26.5
07/29/2019 19:00 456.94 0.00 -- 89.1 27.0
07/29/2019 18:00 456.94 0.00 -- 90.8 27.0
07/29/2019 17:00 456.95 0.00 -- 89.6 27.0
07/29/2019 16:00 456.94 0.00 -- 89.2 27.0
07/29/2019 15:00 456.95 0.00 -- 88.2 27.0
07/29/2019 14:00 456.94 0.00 -- 84.4 27.0
07/29/2019 13:00 456.94 0.00 -- 84.7 27.0
07/29/2019 12:00 456.94 0.00 -- 85.7 27.0
07/29/2019 11:00 456.94 0.00 -- 80.5 27.0
07/29/2019 10:00 456.94 0.00 -- 78.0 27.0
07/29/2019 09:00 456.94 0.00 -- 72.1 27.0
07/29/2019 08:00 456.94 0.00 -- 67.4 27.0
07/29/2019 07:00 456.94 0.00 -- 66.3 27.0
07/29/2019 06:00 456.94 0.00 -- 66.8 27.0
07/29/2019 05:00 456.95 0.00 -- 67.6 27.0
07/29/2019 04:00 456.95 0.00 -- 69.2 27.0
07/29/2019 03:00 456.95 0.00 -- 69.2 28.0
07/29/2019 02:00 456.95 0.00 -- 71.1 27.8
07/29/2019 01:00 456.96 0.00 -- 72.8 28.0
07/29/2019 00:00 456.96 0.00 0.00 74.0 28.0
07/28/2019 23:00 456.96 0.00 -- 76.8 28.0
07/28/2019 22:00 456.96 0.00 -- 78.2 28.8
07/28/2019 21:00 456.97 0.00 -- 79.8 29.0
07/28/2019 20:00 456.97 0.00 -- 82.1 29.0
07/28/2019 19:00 456.97 0.00 -- 85.7 29.0
07/28/2019 18:00 456.97 0.00 -- 86.5 30.0
07/28/2019 17:00 456.98 0.00 -- 89.0 30.0
07/28/2019 16:00 456.98 0.00 -- 88.1 30.0
07/28/2019 15:00 456.98 0.00 -- 87.3 30.3
07/28/2019 14:00 456.99 0.00 -- 86.9 30.0
07/28/2019 13:00 456.98 0.00 -- 86.8 29.3
07/28/2019 12:00 456.97 0.00 -- 81.4 29.5
07/28/2019 11:00 456.98 0.00 -- 78.5 29.0
07/28/2019 10:00 456.97 0.00 -- 73.7 29.0
07/28/2019 09:00 456.97 0.00 -- 68.0 29.0
07/28/2019 08:00 456.97 0.00 -- 63.5 29.0
07/28/2019 07:00 456.98 0.00 -- 61.0 29.8
07/28/2019 06:00 456.98 0.00 -- 61.7 30.0
07/28/2019 05:00 456.98 0.00 -- 61.9 30.0
07/28/2019 04:00 456.99 0.00 -- 63.0 30.0
07/28/2019 03:00 456.99 0.00 -- 64.9 30.0
07/28/2019 02:00 456.99 0.00 -- 67.2 30.8
07/28/2019 01:00 456.99 0.00 -- 67.4 31.0
07/28/2019 00:00 457.00 0.00 0.00 68.9 31.0
07/27/2019 23:00 457.00 0.00 -- 71.4 31.3
07/27/2019 22:00 457.00 0.00 -- 75.7 32.0
07/27/2019 21:00 457.01 0.00 -- 78.5 32.0
07/27/2019 20:00 457.00 0.00 -- 80.7 32.0
07/27/2019 19:00 457.01 0.00 -- 84.4 32.0
07/27/2019 18:00 457.02 0.00 -- 86.1 32.8
07/27/2019 17:00 457.01 0.00 -- 89.2 33.0
07/27/2019 16:00 457.02 0.00 -- 88.2 32.8
07/27/2019 15:00 457.01 0.00 -- 88.2 32.8
07/27/2019 14:00 457.02 0.00 -- 85.6 33.0
07/27/2019 13:00 457.02 0.00 -- 84.7 33.0
07/27/2019 12:00 457.01 0.00 -- 80.5 32.8
07/27/2019 11:00 457.01 0.00 -- 76.1 33.0
07/27/2019 10:00 457.01 0.00 -- 72.9 32.3
07/27/2019 09:00 457.01 0.00 -- 66.5 32.5
07/27/2019 08:00 457.01 0.00 -- 61.6 33.0
07/27/2019 07:00 457.02 0.00 -- 60.0 33.0
07/27/2019 06:00 457.02 0.00 -- 61.0 33.0
07/27/2019 05:00 457.02 0.00 -- 61.8 33.3
07/27/2019 04:00 457.02 0.00 -- 62.9 33.8
07/27/2019 03:00 457.03 0.00 -- 64.2 34.0
07/27/2019 02:00 457.03 0.00 -- 65.6 34.0
07/27/2019 01:00 457.03 0.00 -- 65.9 34.0
07/27/2019 00:00 457.03 0.00 0.00 67.0 34.0
07/26/2019 23:00 457.03 0.00 -- 70.0 34.0
07/26/2019 22:00 457.03 0.00 -- 73.1 34.0
07/26/2019 21:00 457.04 0.00 -- 77.1 34.8
07/26/2019 20:00 457.04 0.00 -- 82.1 35.0
07/26/2019 19:00 457.04 0.00 -- 85.5 35.0
07/26/2019 18:00 457.04 0.00 -- 87.5 35.0
07/26/2019 17:00 457.04 0.00 -- 87.1 35.3
07/26/2019 16:00 457.04 0.00 -- 85.8 35.0
07/26/2019 15:00 457.04 0.00 -- 86.2 35.0
07/26/2019 14:00 457.04 0.00 -- 85.5 35.0
07/26/2019 13:00 457.04 0.00 -- 84.3 35.0
07/26/2019 12:00 457.04 0.00 -- 80.1 35.0
07/26/2019 11:00 457.04 0.00 -- 77.7 35.0
07/26/2019 10:00 457.03 0.00 -- 69.4 34.0
07/26/2019 09:00 457.03 0.00 -- 65.8 34.0
07/26/2019 08:00 457.03 0.00 -- 60.4 34.0
07/26/2019 07:00 457.03 0.00 -- 57.7 34.0
07/26/2019 06:00 457.03 0.00 -- 58.3 34.0
07/26/2019 05:00 457.04 0.00 -- 58.7 34.5
07/26/2019 04:00 457.04 0.00 -- 59.8 35.0
07/26/2019 03:00 457.04 0.00 -- 61.0 35.0
07/26/2019 02:00 457.04 0.00 -- 60.8 35.0
07/26/2019 01:00 457.04 0.00 -- 63.3 35.0
07/26/2019 00:00 457.04 0.00 0.00 64.0 35.0
07/25/2019 23:00 457.04 0.00 -- 66.2 35.0
07/25/2019 22:00 457.04 0.00 -- 68.8 35.0
07/25/2019 21:00 457.05 0.00 -- 72.4 35.0
07/25/2019 20:00 457.05 0.00 -- 74.0 35.3
07/25/2019 19:00 457.05 0.00 -- 79.3 36.0
07/25/2019 18:00 457.05 0.00 -- 80.8 36.0
07/25/2019 17:00 457.05 0.00 -- 80.5 36.0
07/25/2019 16:00 457.05 0.00 -- 83.8 39.0
07/25/2019 15:00 457.06 0.00 -- 81.5 38.0
07/25/2019 14:00 457.06 0.00 -- 80.0 40.0
07/25/2019 13:00 457.06 0.00 -- 76.7 40.0
07/25/2019 12:00 457.06 0.00 -- 77.5 40.0
07/25/2019 11:00 457.06 0.00 -- 74.2 40.0
07/25/2019 10:00 457.06 0.00 -- 66.4 40.0
07/25/2019 09:00 457.06 0.00 -- 62.5 40.0
07/25/2019 08:00 457.06 0.00 -- 55.4 40.0
07/25/2019 07:00 457.06 0.00 -- 54.3 40.0
07/25/2019 06:00 457.06 0.00 -- 55.9 40.5
07/25/2019 05:00 457.07 0.00 -- 56.4 41.0
07/25/2019 04:00 457.07 0.00 -- 57.7 41.3
07/25/2019 03:00 457.07 0.00 -- 58.4 41.8
07/25/2019 02:00 457.08 0.00 -- 60.0 42.0
07/25/2019 01:00 457.08 0.00 -- 62.3 42.0
07/25/2019 00:00 457.08 0.00 0.00 61.5 42.0
07/24/2019 23:00 457.08 0.00 -- 63.4 42.3
07/24/2019 22:00 457.08 0.00 -- 69.1 43.0
07/24/2019 21:00 457.09 0.00 -- 72.6 43.0
07/24/2019 20:00 457.09 0.00 -- 75.9 43.5
07/24/2019 19:00 457.10 0.00 -- 78.4 43.8
07/24/2019 18:00 457.09 0.00 -- 78.4 44.0
07/24/2019 17:00 457.09 0.00 -- 77.3 43.5
07/24/2019 16:00 457.09 0.00 -- 82.6 43.8
07/24/2019 15:00 457.10 0.00 -- 80.8 44.0
07/24/2019 14:00 457.10 0.00 -- 83.0 44.0
07/24/2019 13:00 457.10 0.00 -- 77.6 44.0
07/24/2019 12:00 457.10 0.00 -- 79.2 44.0
07/24/2019 11:00 457.10 0.00 -- 75.1 44.0
07/24/2019 10:00 457.10 0.00 -- 71.3 44.0
07/24/2019 09:00 457.10 0.00 -- 65.2 44.0
07/24/2019 08:00 457.10 0.00 -- 60.7 44.0
07/24/2019 07:00 457.10 0.00 -- 61.3 44.0
07/24/2019 06:00 457.10 0.00 -- 61.0 44.0
07/24/2019 05:00 457.10 0.00 -- 61.4 44.0
07/24/2019 04:00 457.10 0.00 -- 62.5 44.0
07/24/2019 03:00 457.10 0.00 -- 61.8 44.0
07/24/2019 02:00 457.10 0.00 -- 63.0 44.0
07/24/2019 01:00 457.10 0.00 -- 64.4 44.0
07/24/2019 00:00 457.10 0.00 0.00 64.0 44.3
07/23/2019 23:00 457.10 0.00 -- 65.6 44.8
07/23/2019 22:00 457.10 0.00 -- 66.4 45.0
07/23/2019 21:00 457.11 0.00 -- 70.2 45.0
07/23/2019 20:00 457.11 0.00 -- 71.8 45.0
07/23/2019 19:00 457.11 0.00 -- 72.9 45.0
07/23/2019 18:00 457.10 0.01 -- 74.4 45.0
07/23/2019 17:00 457.10 0.00 -- 75.4 44.0
07/23/2019 16:00 457.10 0.00 -- 74.2 44.0
07/23/2019 15:00 457.10 0.00 -- 70.7 44.0
07/23/2019 14:00 457.10 0.00 -- 67.4 44.0
07/23/2019 13:00 457.09 0.00 -- 65.6 43.5
07/23/2019 12:00 457.09 0.00 -- 62.4 43.0
07/23/2019 11:00 457.09 0.03 -- 62.5 43.0
07/23/2019 10:00 457.09 0.05 -- 62.0 42.5
07/23/2019 09:00 457.08 0.04 -- 62.0 42.3
07/23/2019 08:00 457.08 0.02 -- 62.1 42.0
07/23/2019 07:00 457.08 0.00 -- 61.6 42.0
07/23/2019 06:00 457.08 0.00 -- 62.4 42.0
07/23/2019 05:00 457.08 0.00 -- 62.1 42.0
07/23/2019 04:00 457.08 0.02 -- 62.2 42.0
07/23/2019 03:00 457.08 0.05 -- 63.5 42.0
07/23/2019 02:00 457.07 0.06 -- 64.3 41.3
07/23/2019 01:00 457.07 0.04 -- 64.8 41.0
07/23/2019 00:00 457.07 0.04 0.32 64.2 41.0
07/22/2019 23:00 457.07 0.08 -- 64.1 40.8
07/22/2019 22:00 457.06 0.09 -- 65.9 39.0
07/22/2019 21:00 457.05 0.07 -- 67.6 36.0
07/22/2019 20:00 457.05 0.01 -- 68.4 36.0
07/22/2019 19:00 457.05 0.00 -- 70.9 36.0
07/22/2019 18:00 457.05 0.01 -- 72.3 38.0
07/22/2019 17:00 457.06 0.01 -- 73.0 38.0
07/22/2019 16:00 457.05 0.00 -- 73.0 39.0
07/22/2019 15:00 457.06 0.01 -- 72.9 38.0
07/22/2019 14:00 457.06 0.00 -- 76.1 38.0
07/22/2019 13:00 457.05 0.00 -- 74.7 38.0
07/22/2019 12:00 457.06 0.00 -- 75.0 40.0
07/22/2019 11:00 457.06 0.00 -- 77.8 40.0
07/22/2019 10:00 457.06 0.00 -- 73.8 40.0
07/22/2019 09:00 457.06 0.00 -- 72.4 40.0
07/22/2019 08:00 457.06 0.00 -- 68.2 40.0
07/22/2019 07:00 457.06 0.00 -- 66.9 40.0
07/22/2019 06:00 457.06 0.00 -- 67.9 41.0
07/22/2019 05:00 457.06 0.00 -- 68.8 41.0
07/22/2019 04:00 457.07 0.00 -- 67.8 41.0
07/22/2019 03:00 457.07 0.00 -- 69.7 41.0
07/22/2019 02:00 457.07 0.00 -- 70.5 41.8
07/22/2019 01:00 457.08 0.00 -- 72.5 41.8
07/22/2019 00:00 457.08 0.00 0.32 75.2 42.0
07/21/2019 23:00 457.08 0.00 -- 79.4 42.0
07/21/2019 22:00 457.08 0.00 -- 80.6 42.0
07/21/2019 21:00 457.08 0.00 -- 80.2 42.0
07/21/2019 20:00 457.08 0.00 -- 82.7 42.5
07/21/2019 19:00 457.09 0.00 -- 85.3 43.0
07/21/2019 18:00 457.09 0.00 -- 85.7 43.0
07/21/2019 17:00 457.10 0.00 -- 87.8 44.3
07/21/2019 16:00 457.09 0.00 -- 85.2 43.8
07/21/2019 15:00 457.10 0.00 -- 90.9 44.0
07/21/2019 14:00 457.11 0.00 -- 90.4 44.8
07/21/2019 13:00 457.10 0.00 -- 89.2 44.5
07/21/2019 12:00 457.12 0.00 -- 91.0 45.8
07/21/2019 11:00 457.11 0.00 -- 87.5 45.0
07/21/2019 10:00 457.10 0.00 -- 82.9 44.3
07/21/2019 09:00 457.10 0.00 -- 83.7 44.0
07/21/2019 08:00 457.10 0.00 -- 77.9 44.3
07/21/2019 07:00 457.10 0.00 -- 73.2 44.0
07/21/2019 06:00 457.10 0.00 -- 74.1 44.3
07/21/2019 05:00 457.11 0.00 -- 74.0 44.8
07/21/2019 04:00 457.11 0.00 -- 74.9 45.0
07/21/2019 03:00 457.11 0.00 -- 76.4 45.0
07/21/2019 02:00 457.11 0.00 -- 78.7 45.0
07/21/2019 01:00 457.11 0.00 -- 78.8 45.0
07/21/2019 00:00 457.11 0.00 0.00 81.1 46.0
07/20/2019 23:00 457.12 0.00 -- 79.3 46.0
07/20/2019 22:00 457.12 0.00 -- 80.0 46.3
07/20/2019 21:00 457.12 0.00 -- 85.3 47.0
07/20/2019 20:00 457.12 0.00 -- 89.9 47.3
07/20/2019 19:00 457.13 0.00 -- 91.9 47.5
07/20/2019 18:00 457.13 0.00 -- 92.6 48.0
07/20/2019 17:00 457.14 0.00 -- 93.2 47.8
07/20/2019 16:00 457.13 0.00 -- 93.3 47.8
07/20/2019 15:00 457.13 0.00 -- 93.4 48.0
07/20/2019 14:00 457.13 0.00 -- 94.6 48.0
07/20/2019 13:00 457.13 0.00 -- 90.9 48.0
07/20/2019 12:00 457.14 0.00 -- 88.8 48.3
07/20/2019 11:00 457.14 0.00 -- 85.4 48.3
07/20/2019 10:00 457.14 0.00 -- 85.8 48.0
07/20/2019 09:00 457.13 0.00 -- 79.8 48.0
07/20/2019 08:00 457.14 0.00 -- 73.5 48.0
07/20/2019 07:00 457.14 0.00 -- 70.6 48.0
07/20/2019 06:00 457.14 0.00 -- 70.4 49.0
07/20/2019 05:00 457.14 0.00 -- 71.4 48.8
07/20/2019 04:00 457.14 0.00 -- 72.2 49.0
07/20/2019 03:00 457.15 0.00 -- 74.4 49.8
07/20/2019 02:00 457.15 0.00 -- 76.2 50.0
07/20/2019 01:00 457.15 0.00 -- 76.1 50.3
07/20/2019 00:00 457.16 0.00 0.00 76.8 51.0
07/19/2019 23:00 457.16 0.00 -- 78.4 51.0
07/19/2019 22:00 457.16 0.00 -- 82.2 51.5
07/19/2019 21:00 457.17 0.00 -- 85.5 52.0
07/19/2019 20:00 457.17 0.00 -- 88.1 52.0
07/19/2019 19:00 457.18 0.00 -- 88.3 53.3
07/19/2019 18:00 457.17 0.00 -- 89.5 53.0
07/19/2019 17:00 457.18 0.00 -- 91.2 54.3
07/19/2019 16:00 457.18 0.00 -- 88.8 53.5
07/19/2019 15:00 457.18 0.00 -- 87.5 53.0
07/19/2019 14:00 457.18 0.00 -- 86.3 53.5
07/19/2019 13:00 457.19 0.00 -- 82.2 53.8
07/19/2019 12:00 457.18 0.00 -- 79.8 53.3
07/19/2019 11:00 457.18 0.00 -- 76.8 53.5
07/19/2019 10:00 457.18 0.00 -- 74.3 53.0
07/19/2019 09:00 457.18 0.00 -- 68.1 53.0
07/19/2019 08:00 457.18 0.00 -- 63.9 53.0
07/19/2019 07:00 457.18 0.00 -- 61.8 53.5
07/19/2019 06:00 457.18 0.00 -- 61.7 54.0
07/19/2019 05:00 457.19 0.00 -- 61.1 54.0
07/19/2019 04:00 457.19 0.00 -- 61.1 55.0
07/19/2019 03:00 457.19 0.00 -- 61.9 55.0
07/19/2019 02:00 457.20 0.00 -- 63.8 55.5
07/19/2019 01:00 457.20 0.00 -- 64.3 56.0
07/19/2019 00:00 457.20 0.00 0.00 66.7 56.0
07/18/2019 23:00 457.21 0.00 -- 70.6 56.0
07/18/2019 22:00 457.21 0.00 -- 71.2 57.0
07/18/2019 21:00 457.21 0.00 -- 75.9 57.8
07/18/2019 20:00 457.22 0.00 -- 79.0 58.0
07/18/2019 19:00 457.22 0.00 -- 81.8 58.3
07/18/2019 18:00 457.22 0.00 -- 85.7 59.0
07/18/2019 17:00 457.23 0.00 -- 82.8 59.3
07/18/2019 16:00 457.24 0.00 -- 82.8 59.5
07/18/2019 15:00 457.23 0.00 -- 82.4 59.0
07/18/2019 14:00 457.23 0.00 -- 76.9 59.0
07/18/2019 13:00 457.23 0.00 -- 76.1 59.3
07/18/2019 12:00 457.23 0.00 -- 74.3 59.0
07/18/2019 11:00 457.23 0.00 -- 74.8 59.0
07/18/2019 10:00 457.23 0.00 -- 71.2 59.0
07/18/2019 09:00 457.23 0.00 -- 70.2 59.3
07/18/2019 08:00 457.23 0.00 -- 68.1 60.0
07/18/2019 07:00 457.24 0.00 -- 65.9 60.0
07/18/2019 06:00 457.24 0.00 -- 67.4 60.5
07/18/2019 05:00 457.24 0.00 -- 69.3 61.0
07/18/2019 04:00 457.24 0.00 -- 69.8 61.0
07/18/2019 03:00 457.25 0.00 -- 70.4 61.5
07/18/2019 02:00 457.25 0.00 -- 70.7 62.0
07/18/2019 01:00 457.26 0.00 -- 71.1 62.0
07/18/2019 00:00 457.26 0.00 0.00 73.1 63.3
07/17/2019 23:00 457.26 0.00 -- 74.5 63.5
07/17/2019 22:00 457.26 0.00 -- 76.5 64.0
07/17/2019 21:00 457.27 0.00 -- 78.3 64.5
07/17/2019 20:00 457.27 0.00 -- 79.7 65.0
07/17/2019 19:00 457.28 0.00 -- 79.4 65.0
07/17/2019 18:00 457.28 0.00 -- 80.8 66.0
07/17/2019 17:00 457.29 0.00 -- 82.2 66.3
07/17/2019 16:00 457.29 0.00 -- 82.9 67.0
07/17/2019 15:00 457.29 0.00 -- 82.9 67.0
07/17/2019 14:00 457.29 0.01 -- 79.1 67.3
07/17/2019 13:00 457.30 0.00 -- 77.3 68.0
07/17/2019 12:00 457.30 0.00 -- 76.2 68.0
07/17/2019 11:00 457.30 0.06 -- 72.6 68.5
07/17/2019 10:00 457.31 0.02 -- 71.8 69.5
07/17/2019 09:00 457.31 0.00 -- 72.4 69.0
07/17/2019 08:00 457.31 0.00 -- 68.3 69.3
07/17/2019 07:00 457.31 0.00 -- 66.7 69.3
07/17/2019 06:00 457.31 0.00 -- 65.9 69.8
07/17/2019 05:00 457.31 0.00 -- 65.7 70.0
07/17/2019 04:00 457.32 0.00 -- 66.3 70.3
07/17/2019 03:00 457.32 0.00 -- 67.3 71.0
07/17/2019 02:00 457.32 0.00 -- 68.0 71.5
07/17/2019 01:00 457.32 0.00 -- 70.0 71.8
07/17/2019 00:00 457.33 0.00 0.09 73.7 72.0
07/16/2019 23:00 457.33 0.00 -- 74.4 72.8
07/16/2019 22:00 457.33 0.00 -- 74.9 73.0
07/16/2019 21:00 457.34 0.00 -- 76.8 73.3
07/16/2019 20:00 457.35 0.00 -- 78.6 74.5
07/16/2019 19:00 457.36 0.00 -- 79.0 75.3
07/16/2019 18:00 457.35 0.00 -- 78.9 75.0
07/16/2019 17:00 457.36 0.00 -- 82.5 75.8
07/16/2019 16:00 457.36 0.00 -- 81.8 76.0
07/16/2019 15:00 457.36 0.00 -- 83.6 77.0
07/16/2019 14:00 457.37 0.00 -- 81.9 77.5
07/16/2019 13:00 457.37 0.00 -- 80.6 78.0
07/16/2019 12:00 457.37 0.00 -- 79.2 78.0
07/16/2019 11:00 457.37 0.00 -- 75.8 78.0
07/16/2019 10:00 457.37 0.00 -- 70.5 78.5
07/16/2019 09:00 457.38 0.00 -- 65.1 79.3
07/16/2019 08:00 457.39 0.00 -- 59.6 80.0
07/16/2019 07:00 457.39 0.00 -- 58.1 80.8
07/16/2019 06:00 457.39 0.00 -- 59.7 81.5
07/16/2019 05:00 457.40 0.00 -- 60.8 82.3
07/16/2019 04:00 457.41 0.00 -- 60.6 82.8
07/16/2019 03:00 457.41 0.00 -- 61.2 84.3
07/16/2019 02:00 457.42 0.00 -- 61.8 84.8
07/16/2019 01:00 457.42 0.00 -- 62.4 86.3
07/16/2019 00:00 457.43 0.00 0.00 64.5 87.3
07/15/2019 23:00 457.44 0.00 -- 67.1 88.0
07/15/2019 22:00 457.45 0.00 -- 71.0 89.5
07/15/2019 21:00 457.46 0.00 -- 73.7 91.0
07/15/2019 20:00 457.47 0.00 -- 77.3 92.0
07/15/2019 19:00 457.47 0.00 -- 80.1 93.8
07/15/2019 18:00 457.49 0.00 -- 82.3 95.0
07/15/2019 17:00 457.50 0.00 -- 83.1 97.0
07/15/2019 16:00 457.51 0.00 -- 82.3 98.3
07/15/2019 15:00 457.52 0.00 -- 80.7 99.0
07/15/2019 14:00 457.52 0.00 -- 79.0 101.3
07/15/2019 13:00 457.53 0.00 -- 78.4 102.0
07/15/2019 12:00 457.54 0.00 -- 78.7 102.5
07/15/2019 11:00 457.54 0.00 -- 73.9 103.5
07/15/2019 10:00 457.56 0.00 -- 72.1 105.3
07/15/2019 09:00 457.56 0.00 -- 68.7 106.5
07/15/2019 08:00 457.58 0.00 -- 66.7 107.5
07/15/2019 07:00 457.58 0.00 -- 66.8 109.0
07/15/2019 06:00 457.59 0.00 -- 66.7 110.8
07/15/2019 05:00 457.60 0.00 -- 67.1 112.0
07/15/2019 04:00 457.62 0.00 -- 67.2 115.0
07/15/2019 03:00 457.63 0.00 -- 68.1 116.3
07/15/2019 02:00 457.63 0.00 -- 68.1 117.8
07/15/2019 01:00 457.64 0.00 -- 69.6 119.3
07/15/2019 00:00 457.65 0.00 0.00 70.6 119.8
07/14/2019 23:00 457.66 0.00 -- 71.5 122.3
07/14/2019 22:00 457.68 0.00 -- 73.3 124.8
07/14/2019 21:00 457.69 0.00 -- 73.6 130.0
07/14/2019 20:00 457.71 0.00 -- 76.5 133.5
07/14/2019 19:00 457.71 0.00 -- 78.2 135.5
07/14/2019 18:00 457.73 0.00 -- 82.5 137.8
07/14/2019 17:00 457.75 0.00 -- 84.3 138.0
07/14/2019 16:00 457.75 0.00 -- 84.3 142.3
07/14/2019 15:00 457.79 0.00 -- 80.9 145.8
07/14/2019 14:00 457.81 0.00 -- 75.0 148.5
07/14/2019 13:00 457.80 0.00 -- 79.4 149.0
07/14/2019 12:00 457.81 0.00 -- 81.8 151.3
07/14/2019 11:00 457.83 0.00 -- 79.3 153.3
07/14/2019 10:00 457.84 0.00 -- 78.3 154.8
07/14/2019 09:00 457.83 0.00 -- 71.7 156.8
07/14/2019 08:00 457.86 0.00 -- 66.0 160.0
07/14/2019 07:00 457.87 0.00 -- 64.3 162.3
07/14/2019 06:00 457.89 0.00 -- 66.0 165.8
07/14/2019 05:00 457.91 0.00 -- 67.4 168.3
07/14/2019 04:00 457.92 0.00 -- 68.7 171.8
07/14/2019 03:00 457.94 0.00 -- 69.4 174.5
07/14/2019 02:00 457.95 0.00 -- 71.8 178.5
07/14/2019 01:00 457.98 0.00 -- 70.4 182.5
07/14/2019 00:00 457.99 0.00 0.00 70.5 185.5
07/13/2019 23:00 458.01 0.00 -- 70.2 188.8
07/13/2019 22:00 458.03 0.00 -- 74.5 192.5
07/13/2019 21:00 458.06 0.00 -- 80.8 196.3
07/13/2019 20:00 458.07 0.00 -- 83.7 199.3
07/13/2019 19:00 458.09 0.00 -- 85.5 204.3
07/13/2019 18:00 458.11 0.00 -- 83.8 207.0
07/13/2019 17:00 458.13 0.00 -- 85.9 209.8
07/13/2019 16:00 458.14 0.00 -- 84.9 215.5
07/13/2019 15:00 458.15 0.00 -- 84.6 216.5
07/13/2019 14:00 458.17 0.00 -- 84.2 218.5
07/13/2019 13:00 458.18 0.00 -- 83.5 220.0
07/13/2019 12:00 458.19 0.00 -- 79.1 222.0
07/13/2019 11:00 458.20 0.00 -- 76.1 224.8
07/13/2019 10:00 458.22 0.00 -- 75.0 229.0
07/13/2019 09:00 458.22 0.00 -- 68.7 231.8
07/13/2019 08:00 458.25 0.00 -- 62.3 235.5
07/13/2019 07:00 458.27 0.00 -- 61.1 237.5
07/13/2019 06:00 458.27 0.00 -- 61.7 239.5
07/13/2019 05:00 458.31 0.00 -- 63.3 243.5
07/13/2019 04:00 458.31 0.00 -- 64.7 246.8
07/13/2019 03:00 458.31 0.00 -- 66.8 248.5
07/13/2019 02:00 458.32 0.00 -- 67.2 251.5
07/13/2019 01:00 458.34 0.00 -- 68.8 253.5
07/13/2019 00:00 458.33 0.00 0.00 70.3 255.5
07/12/2019 23:00 458.36 0.00 -- 71.3 255.0
07/12/2019 22:00 458.36 0.00 -- 73.2 258.0
07/12/2019 21:00 458.35 0.00 -- 74.7 257.5
07/12/2019 20:00 458.37 0.04 -- 74.8 260.0
07/12/2019 19:00 458.39 0.03 -- 76.3 259.5
07/12/2019 18:00 458.38 0.00 -- 79.1 258.3
07/12/2019 17:00 458.32 0.00 -- 78.9 248.8
07/12/2019 16:00 458.32 0.00 -- 76.7 244.8
07/12/2019 15:00 458.30 0.00 -- 75.8 239.5
07/12/2019 14:00 458.27 0.00 -- 75.2 235.8
07/12/2019 13:00 458.24 0.00 -- 75.5 229.8
07/12/2019 12:00 458.23 0.01 -- 73.5 222.5
07/12/2019 11:00 458.14 0.00 -- 67.6 207.0
07/12/2019 10:00 458.08 0.00 -- 66.2 194.3
07/12/2019 09:00 458.01 0.00 -- 65.8 178.8
07/12/2019 08:00 457.91 0.00 -- 65.3 164.8
07/12/2019 07:00 457.84 0.00 -- 64.8 149.8
07/12/2019 06:00 457.76 0.00 -- 64.4 136.5
07/12/2019 05:00 457.67 0.17 -- 64.0 117.5
07/12/2019 04:00 457.58 0.13 -- 64.9 103.0
07/12/2019 03:00 457.49 0.30 -- 65.5 90.8
07/12/2019 02:00 457.41 0.16 -- 67.0 79.5
07/12/2019 01:00 457.35 0.13 -- 67.7 71.8
07/12/2019 00:00 457.30 0.21 0.97 67.8 65.5
07/11/2019 23:00 457.25 0.16 -- 67.3 59.5
07/11/2019 22:00 457.21 0.96 -- 67.8 53.0
07/11/2019 21:00 457.10 0.23 -- 68.4 43.0
07/11/2019 20:00 457.07 0.63 -- 68.4 36.3
07/11/2019 19:00 457.01 0.38 -- 70.2 31.3
07/11/2019 18:00 456.98 0.08 -- 74.5 29.8
07/11/2019 17:00 456.97 0.00 -- 80.1 29.0
07/11/2019 16:00 456.97 0.00 -- 80.1 29.0
07/11/2019 15:00 456.97 0.00 -- 82.3 29.0
07/11/2019 14:00 456.97 0.00 -- 80.5 29.0
07/11/2019 13:00 456.97 0.00 -- 78.7 29.0
07/11/2019 12:00 456.97 0.00 -- 73.9 29.0
07/11/2019 11:00 456.97 0.00 -- 75.0 29.0
07/11/2019 10:00 456.97 0.00 -- 70.0 29.0
07/11/2019 09:00 456.98 0.00 -- 66.8 29.0
07/11/2019 08:00 456.98 0.00 -- 63.1 29.3
07/11/2019 07:00 456.98 0.00 -- 61.3 30.0
07/11/2019 06:00 456.98 0.00 -- 62.5 30.0
07/11/2019 05:00 456.98 0.00 -- 62.2 30.0
07/11/2019 04:00 456.98 0.00 -- 62.0 30.0
07/11/2019 03:00 456.99 0.00 -- 63.7 30.0
07/11/2019 02:00 456.99 0.00 -- 65.9 30.5
07/11/2019 01:00 456.99 0.00 -- 67.9 31.0
07/11/2019 00:00 456.99 0.00 2.65 70.3 30.5
07/10/2019 23:00 456.99 0.00 -- 72.9 31.0
07/10/2019 22:00 457.00 0.00 -- 76.7 31.0
07/10/2019 21:00 457.00 0.00 -- 80.6 31.0
07/10/2019 20:00 457.00 0.00 -- 83.3 31.3
07/10/2019 19:00 457.00 0.00 -- 85.6 31.8
07/10/2019 18:00 457.00 0.00 -- 86.6 32.0
07/10/2019 17:00 457.01 0.00 -- 86.1 32.0
07/10/2019 16:00 457.01 0.00 -- 89.9 32.0
07/10/2019 15:00 457.00 0.00 -- 86.2 32.0
07/10/2019 14:00 457.00 0.00 -- 86.0 32.0
07/10/2019 13:00 457.01 0.00 -- 82.3 31.8
07/10/2019 12:00 457.00 0.00 -- 81.7 31.8
07/10/2019 11:00 457.00 0.00 -- 77.9 31.8
07/10/2019 10:00 457.00 0.00 -- 72.1 32.0
07/10/2019 09:00 457.00 0.00 -- 66.8 32.0
07/10/2019 08:00 457.00 0.00 -- 62.6 32.0
07/10/2019 07:00 457.00 0.00 -- 60.6 32.0
07/10/2019 06:00 457.01 0.00 -- 61.4 32.0
07/10/2019 05:00 457.01 0.00 -- 61.6 32.0
07/10/2019 04:00 457.01 0.00 -- 62.0 32.5
07/10/2019 03:00 457.01 0.00 -- 64.1 33.0
07/10/2019 02:00 457.02 0.00 -- 64.9 33.0
07/10/2019 01:00 457.02 0.00 -- 65.0 33.0
07/10/2019 00:00 457.02 0.00 0.00 66.7 33.0
07/09/2019 23:00 457.02 0.00 -- 69.8 33.3
07/09/2019 22:00 457.02 0.00 -- 73.4 34.0
07/09/2019 21:00 457.03 0.00 -- 78.5 34.0
07/09/2019 20:00 457.03 0.00 -- 79.7 34.0
07/09/2019 19:00 457.03 0.00 -- 82.4 34.3
07/09/2019 18:00 457.02 0.00 -- 84.4 34.0
07/09/2019 17:00 457.03 0.00 -- 87.8 34.8
07/09/2019 16:00 457.03 0.00 -- 85.6 34.0
07/09/2019 15:00 457.04 0.00 -- 84.7 35.3
07/09/2019 14:00 457.05 0.00 -- 84.8 35.0
07/09/2019 13:00 457.04 0.00 -- 83.8 34.8
07/09/2019 12:00 457.04 0.00 -- 81.8 34.8
07/09/2019 11:00 457.03 0.00 -- 79.1 34.5
07/09/2019 10:00 457.03 0.00 -- 71.3 34.3
07/09/2019 09:00 457.03 0.00 -- 64.5 34.5
07/09/2019 08:00 457.04 0.00 -- 57.6 35.0
07/09/2019 07:00 457.04 0.00 -- 55.9 35.0
07/09/2019 06:00 457.04 0.00 -- 55.7 35.0
07/09/2019 05:00 457.04 0.00 -- 57.4 35.3
07/09/2019 04:00 457.05 0.00 -- 57.7 36.0
07/09/2019 03:00 457.05 0.00 -- 57.0 36.0
07/09/2019 02:00 457.05 0.00 -- 60.6 36.0
07/09/2019 01:00 457.05 0.00 -- 62.4 39.0
07/09/2019 00:00 457.06 0.00 0.00 64.2 39.0
07/08/2019 23:00 457.06 0.00 -- 67.7 40.0
07/08/2019 22:00 457.07 0.00 -- 70.2 41.0
07/08/2019 21:00 457.07 0.00 -- 76.1 41.3
07/08/2019 20:00 457.08 0.00 -- 79.2 42.0
07/08/2019 19:00 457.08 0.00 -- 83.3 41.8
07/08/2019 18:00 457.08 0.00 -- 84.7 42.3
07/08/2019 17:00 457.08 0.00 -- 84.5 42.0
07/08/2019 16:00 457.08 0.00 -- 83.6 41.8
07/08/2019 15:00 457.07 0.00 -- 82.3 42.0
07/08/2019 14:00 457.08 0.00 -- 80.3 42.0
07/08/2019 13:00 457.08 0.00 -- 79.2 42.0
07/08/2019 12:00 457.08 0.00 -- 78.0 42.0
07/08/2019 11:00 457.08 0.00 -- 75.4 42.0
07/08/2019 10:00 457.08 0.00 -- 66.8 41.8
07/08/2019 09:00 457.07 0.00 -- 62.6 42.0
07/08/2019 08:00 457.07 0.00 -- 57.2 41.8
07/08/2019 07:00 457.08 0.00 -- 54.7 42.0
07/08/2019 06:00 457.08 0.00 -- 54.6 42.0
07/08/2019 05:00 457.08 0.00 -- 55.8 42.3
07/08/2019 04:00 457.08 0.00 -- 55.6 43.0
07/08/2019 03:00 457.09 0.00 -- 55.7 43.0
07/08/2019 02:00 457.09 0.00 -- 56.6 43.0
07/08/2019 01:00 457.09 0.00 -- 58.2 43.0
07/08/2019 00:00 457.09 0.00 0.00 61.7 44.0
07/07/2019 23:00 457.09 0.00 -- 64.2 44.0
07/07/2019 22:00 457.09 0.00 -- 69.6 44.0
07/07/2019 21:00 457.10 0.00 -- 73.3 43.8
07/07/2019 20:00 457.10 0.00 -- 77.2 44.5
07/07/2019 19:00 457.10 0.00 -- 79.4 44.8
07/07/2019 18:00 457.10 0.00 -- 82.5 44.5
07/07/2019 17:00 457.11 0.00 -- 83.7 44.5
07/07/2019 16:00 457.10 0.00 -- 82.0 44.5
07/07/2019 15:00 457.10 0.00 -- 81.5 44.0
07/07/2019 14:00 457.10 0.00 -- 80.4 44.0
07/07/2019 13:00 457.10 0.00 -- 76.8 44.0
07/07/2019 12:00 457.10 0.00 -- 74.1 44.0
07/07/2019 11:00 457.10 0.00 -- 73.9 44.0
07/07/2019 10:00 457.09 0.00 -- 69.4 43.8
07/07/2019 09:00 457.09 0.00 -- 65.3 43.0
07/07/2019 08:00 457.09 0.00 -- 60.3 43.0
07/07/2019 07:00 457.09 0.00 -- 58.5 43.3
07/07/2019 06:00 457.09 0.00 -- 59.5 43.0
07/07/2019 05:00 457.09 0.00 -- 60.5 43.5
07/07/2019 04:00 457.09 0.00 -- 61.8 43.8
07/07/2019 03:00 457.09 0.00 -- 65.1 43.8
07/07/2019 02:00 457.09 0.00 -- 68.0 43.8
07/07/2019 01:00 457.09 0.00 -- 68.5 43.3
07/07/2019 00:00 457.09 0.00 0.00 69.2 43.5
07/06/2019 23:00 457.09 0.00 -- 71.2 43.8
07/06/2019 22:00 457.09 0.00 -- 73.5 44.0
07/06/2019 21:00 457.10 0.00 -- 75.0 44.0
07/06/2019 20:00 457.10 0.00 -- 75.3 44.0
07/06/2019 19:00 457.10 0.02 -- 75.1 44.3
07/06/2019 18:00 457.11 0.32 -- 73.4 44.5
07/06/2019 17:00 457.09 0.00 -- 79.6 42.3
07/06/2019 16:00 457.09 0.00 -- 89.8 43.0
07/06/2019 15:00 457.08 0.00 -- 91.3 42.0
07/06/2019 14:00 457.09 0.00 -- 87.6 43.5
07/06/2019 13:00 457.08 0.00 -- 85.8 42.3
07/06/2019 12:00 457.08 0.00 -- 84.6 42.0
07/06/2019 11:00 457.08 0.00 -- 82.2 42.0
07/06/2019 10:00 457.08 0.00 -- 79.9 42.0
07/06/2019 09:00 457.08 0.00 -- 78.0 42.0
07/06/2019 08:00 457.08 0.00 -- 72.7 42.0
07/06/2019 07:00 457.08 0.00 -- 71.1 42.0
07/06/2019 06:00 457.08 0.00 -- 73.6 42.8
07/06/2019 05:00 457.08 0.00 -- 71.5 42.8
07/06/2019 04:00 457.09 0.00 -- 72.5 43.0
07/06/2019 03:00 457.10 0.00 -- 77.3 44.0
07/06/2019 02:00 457.10 0.00 -- 77.7 43.8
07/06/2019 01:00 457.10 0.00 -- 78.9 44.0
07/06/2019 00:00 457.10 0.00 0.34 76.0 44.0
07/05/2019 23:00 457.10 0.00 -- 80.0 44.5
07/05/2019 22:00 457.10 0.00 -- 82.7 45.0
07/05/2019 21:00 457.11 0.00 -- 85.1 45.0
07/05/2019 20:00 457.11 0.00 -- 88.4 45.3
07/05/2019 19:00 457.12 0.00 -- 90.2 45.5
07/05/2019 18:00 457.12 0.00 -- 91.3 46.5
07/05/2019 17:00 457.12 0.00 -- 91.0 46.5
07/05/2019 16:00 457.12 0.00 -- 90.1 46.3
07/05/2019 15:00 457.12 0.00 -- 91.4 46.8
07/05/2019 14:00 457.11 0.00 -- 90.0 46.5
07/05/2019 13:00 457.11 0.00 -- 88.4 47.0
07/05/2019 12:00 457.12 0.00 -- 86.4 46.8
07/05/2019 11:00 457.12 0.00 -- 84.8 46.0
07/05/2019 10:00 457.12 0.00 -- 78.3 46.0
07/05/2019 09:00 457.12 0.00 -- 70.5 46.0
07/05/2019 08:00 457.12 0.00 -- 65.3 46.8
07/05/2019 07:00 457.12 0.00 -- 63.0 46.8
07/05/2019 06:00 457.12 0.00 -- 62.5 47.0
07/05/2019 05:00 457.13 0.00 -- 63.0 47.3
07/05/2019 04:00 457.13 0.00 -- 63.8 48.0
07/05/2019 03:00 457.13 0.00 -- 64.9 48.0
07/05/2019 02:00 457.14 0.00 -- 66.5 48.0
07/05/2019 01:00 457.14 0.00 -- 68.9 48.5
07/05/2019 00:00 457.14 0.00 0.00 70.8 49.0
07/04/2019 23:00 457.14 0.00 -- 72.4 49.0
07/04/2019 22:00 457.15 0.00 -- 76.3 49.5
07/04/2019 21:00 457.15 0.00 -- 81.9 49.8
07/04/2019 20:00 457.15 0.00 -- 86.3 50.0
07/04/2019 19:00 457.15 0.00 -- 88.3 50.3
07/04/2019 18:00 457.16 0.00 -- 91.2 50.5
07/04/2019 17:00 457.15 0.00 -- 91.7 50.5
07/04/2019 16:00 457.16 0.00 -- 89.6 51.3
07/04/2019 15:00 457.17 0.00 -- 87.9 52.0
07/04/2019 14:00 457.17 0.00 -- 90.7 52.0
07/04/2019 13:00 457.17 0.00 -- 85.2 52.0
07/04/2019 12:00 457.17 0.00 -- 82.8 52.0
07/04/2019 11:00 457.17 0.00 -- 80.4 52.0
07/04/2019 10:00 457.17 0.00 -- 75.2 52.0
07/04/2019 09:00 457.17 0.00 -- 69.4 52.0
07/04/2019 08:00 457.17 0.00 -- 63.0 53.0
07/04/2019 07:00 457.18 0.00 -- 61.8 53.0
07/04/2019 06:00 457.18 0.00 -- 62.8 54.0
07/04/2019 05:00 457.19 0.00 -- 64.1 54.0
07/04/2019 04:00 457.19 0.00 -- 64.6 54.5
07/04/2019 03:00 457.19 0.00 -- 65.5 55.0
07/04/2019 02:00 457.20 0.00 -- 67.4 55.0
07/04/2019 01:00 457.20 0.00 -- 67.0 55.3
07/04/2019 00:00 457.20 0.00 0.00 67.7 56.0
07/03/2019 23:00 457.20 0.00 -- 71.1 56.0
07/03/2019 22:00 457.21 0.00 -- 73.4 57.0
07/03/2019 21:00 457.21 0.00 -- 79.2 57.5
07/03/2019 20:00 457.22 0.00 -- 85.2 57.3
07/03/2019 19:00 457.22 0.00 -- 87.3 58.0
07/03/2019 18:00 457.22 0.00 -- 87.7 58.3
07/03/2019 17:00 457.22 0.00 -- 87.4 58.5
07/03/2019 16:00 457.23 0.00 -- 87.6 59.0
07/03/2019 15:00 457.23 0.00 -- 86.8 59.0
07/03/2019 14:00 457.23 0.00 -- 87.6 60.0
07/03/2019 13:00 457.23 0.00 -- 86.2 59.8
07/03/2019 12:00 457.23 0.00 -- 83.4 60.3
07/03/2019 11:00 457.24 0.00 -- 81.3 60.0
07/03/2019 10:00 457.24 0.00 -- 77.5 60.0
07/03/2019 09:00 457.24 0.00 -- 71.2 60.5
07/03/2019 08:00 457.24 0.00 -- 66.1 61.0
07/03/2019 07:00 457.25 0.00 -- 62.7 61.8
07/03/2019 06:00 457.25 0.00 -- 63.4 62.0
07/03/2019 05:00 457.25 0.00 -- 62.5 62.8
07/03/2019 04:00 457.26 0.00 -- 62.8 63.5
07/03/2019 03:00 457.26 0.00 -- 63.7 63.8
07/03/2019 02:00 457.27 0.00 -- 65.1 64.3
07/03/2019 01:00 457.27 0.00 -- 65.4 64.3
07/03/2019 00:00 457.27 0.00 0.00 67.0 64.8
07/02/2019 23:00 457.27 0.00 -- 69.0 65.0
07/02/2019 22:00 457.28 0.00 -- 73.8 65.5
07/02/2019 21:00 457.28 0.00 -- 77.9 66.0
07/02/2019 20:00 457.28 0.00 -- 81.2 66.3
07/02/2019 19:00 457.29 0.00 -- 83.6 67.0
07/02/2019 18:00 457.30 0.00 -- 85.9 68.0
07/02/2019 17:00 457.30 0.00 -- 83.6 68.0
07/02/2019 16:00 457.30 0.00 -- 87.7 69.3
07/02/2019 15:00 457.30 0.00 -- 83.9 68.8
07/02/2019 14:00 457.31 0.00 -- 85.2 69.3
07/02/2019 13:00 457.32 0.00 -- 83.3 70.0
07/02/2019 12:00 457.32 0.00 -- 75.3 70.5
07/02/2019 11:00 457.32 0.00 -- 71.7 70.8
07/02/2019 10:00 457.32 0.00 -- 68.6 71.0
07/02/2019 09:00 457.32 0.00 -- 68.4 71.3
07/02/2019 08:00 457.32 0.00 -- 65.7 71.8
07/02/2019 07:00 457.33 0.00 -- 65.7 72.3
07/02/2019 06:00 457.34 0.00 -- 65.5 73.3
07/02/2019 05:00 457.34 0.00 -- 67.3 73.5
07/02/2019 04:00 457.34 0.00 -- 65.8 74.3
07/02/2019 03:00 457.35 0.00 -- 67.2 75.0
07/02/2019 02:00 457.35 0.00 -- 66.5 75.3
07/02/2019 01:00 457.35 0.00 -- 67.1 75.5
07/02/2019 00:00 457.36 0.00 0.00 68.4 76.0
07/01/2019 23:00 457.36 0.00 -- 70.4 77.0
07/01/2019 22:00 457.36 0.00 -- 73.8 77.0
07/01/2019 21:00 457.37 0.00 -- 76.2 77.5
07/01/2019 20:00 457.37 0.00 -- 78.8 78.0
07/01/2019 19:00 457.37 0.00 -- 81.7 77.8
07/01/2019 18:00 457.37 0.00 -- 82.2 78.0
07/01/2019 17:00 457.37 0.00 -- 80.9 78.8
07/01/2019 16:00 457.38 0.00 -- 83.8 78.5
07/01/2019 15:00 457.38 0.00 -- 83.3 79.0
07/01/2019 14:00 457.38 0.00 -- 81.0 78.5
07/01/2019 13:00 457.36 0.00 -- 79.8 77.8
07/01/2019 12:00 457.37 0.00 -- 77.5 78.5
07/01/2019 11:00 457.37 0.00 -- 75.3 78.3
07/01/2019 10:00 457.38 0.00 -- 72.7 78.3
07/01/2019 09:00 457.37 0.00 -- 66.5 78.0
07/01/2019 08:00 457.37 0.00 -- 58.8 77.8
07/01/2019 07:00 457.37 0.00 -- 53.9 77.5
07/01/2019 06:00 457.37 0.00 -- 54.3 77.8
07/01/2019 05:00 457.37 0.00 -- 55.1 77.0
07/01/2019 04:00 457.37 0.00 -- 55.8 77.0
07/01/2019 03:00 457.36 0.00 -- 56.8 77.0
07/01/2019 02:00 457.36 0.00 -- 58.5 76.5
07/01/2019 01:00 457.36 0.00 -- 58.6 76.3
07/01/2019 00:00 457.36 0.00 0.00 59.9 76.0
06/30/2019 23:00 457.36 0.00 -- 61.4 76.0
06/30/2019 22:00 457.36 0.00 -- 62.5 75.8
06/30/2019 21:00 457.35 0.00 -- 64.8 75.3
06/30/2019 20:00 457.35 0.01 -- 64.3 75.3
06/30/2019 19:00 457.35 0.04 -- 64.2 74.3
06/30/2019 18:00 457.34 0.01 -- 64.8 73.0
06/30/2019 17:00 457.34 0.00 -- 71.2 74.0
06/30/2019 16:00 457.34 0.00 -- 72.2 73.5
06/30/2019 15:00 457.34 0.00 -- 66.9 73.5
06/30/2019 14:00 457.34 0.05 -- 64.6 72.8
06/30/2019 13:00 457.34 0.00 -- 73.4 73.3
06/30/2019 12:00 457.33 0.00 -- 72.6 73.0
06/30/2019 11:00 457.34 0.00 -- 69.6 73.0
06/30/2019 10:00 457.33 0.00 -- 69.5 72.3
06/30/2019 09:00 457.33 0.00 -- 70.1 72.0
06/30/2019 08:00 457.32 0.00 -- 62.8 71.8
06/30/2019 07:00 457.33 0.00 -- 61.8 72.0
06/30/2019 06:00 457.33 0.00 -- 62.1 72.0
06/30/2019 05:00 457.32 0.00 -- 62.7 71.5
06/30/2019 04:00 457.32 0.00 -- 63.6 71.5
06/30/2019 03:00 457.33 0.00 -- 63.6 72.0
06/30/2019 02:00 457.33 0.05 -- 63.4 71.5
06/30/2019 01:00 457.32 0.07 -- 64.1 71.3
06/30/2019 00:00 457.32 0.15 0.23 64.7 70.5
06/29/2019 23:00 457.31 0.21 -- 64.3 68.8
06/29/2019 22:00 457.29 0.00 -- 74.1 67.5
06/29/2019 21:00 457.30 0.00 -- 78.5 67.5
06/29/2019 20:00 457.29 0.00 -- 78.8 68.0
06/29/2019 19:00 457.30 0.00 -- 79.3 68.5
06/29/2019 18:00 457.30 0.00 -- 82.8 69.0
06/29/2019 17:00 457.31 0.00 -- 81.4 69.8
06/29/2019 16:00 457.31 0.00 -- 81.7 70.3
06/29/2019 15:00 457.32 0.00 -- 82.2 71.0
06/29/2019 14:00 457.32 0.00 -- 82.4 70.3
06/29/2019 13:00 457.31 0.00 -- 77.6 70.0
06/29/2019 12:00 457.31 0.00 -- 73.2 70.3
06/29/2019 11:00 457.32 0.00 -- 70.8 70.8
06/29/2019 10:00 457.32 0.00 -- 70.7 71.0
06/29/2019 09:00 457.32 0.00 -- 69.4 71.0
06/29/2019 08:00 457.32 0.00 -- 67.6 72.3
06/29/2019 07:00 457.33 0.00 -- 71.6 72.0
06/29/2019 06:00 457.33 0.00 -- 67.3 72.5
06/29/2019 05:00 457.33 0.00 -- 67.2 73.0
06/29/2019 04:00 457.34 0.00 -- 68.5 73.5
06/29/2019 03:00 457.34 0.00 -- 69.7 74.0
06/29/2019 02:00 457.35 0.00 -- 70.3 74.5
06/29/2019 01:00 457.35 0.00 -- 69.6 75.0
06/29/2019 00:00 457.35 0.00 0.36 69.0 75.0
06/28/2019 23:00 457.35 0.00 -- 70.5 75.8
06/28/2019 22:00 457.35 0.00 -- 72.8 76.0
06/28/2019 21:00 457.36 0.00 -- 77.8 76.3
06/28/2019 20:00 457.36 0.00 -- 78.2 77.0
06/28/2019 19:00 457.37 0.00 -- 85.3 77.0
06/28/2019 18:00 457.37 0.00 -- 83.7 77.5
06/28/2019 17:00 457.37 0.00 -- 88.6 77.0
06/28/2019 16:00 457.37 0.00 -- 85.4 78.0
06/28/2019 15:00 457.37 0.00 -- 88.3 78.8
06/28/2019 14:00 457.38 0.00 -- 87.1 79.8
06/28/2019 13:00 457.39 0.00 -- 83.7 80.3
06/28/2019 12:00 457.39 0.00 -- 82.7 80.0
06/28/2019 11:00 457.39 0.00 -- 81.1 80.0
06/28/2019 10:00 457.38 0.00 -- 74.9 80.0
06/28/2019 09:00 457.39 0.00 -- 69.5 80.3
06/28/2019 08:00 457.39 0.00 -- 63.7 80.5
06/28/2019 07:00 457.39 0.00 -- 60.1 80.8
06/28/2019 06:00 457.40 0.00 -- 60.0 81.5
06/28/2019 05:00 457.40 0.00 -- 60.7 81.8
06/28/2019 04:00 457.41 0.00 -- 61.6 82.3
06/28/2019 03:00 457.41 0.00 -- 63.3 83.0
06/28/2019 02:00 457.41 0.00 -- 61.7 83.3
06/28/2019 01:00 457.41 0.00 -- 63.5 84.0
06/28/2019 00:00 457.42 0.00 0.00 65.8 84.0
06/27/2019 23:00 457.42 0.00 -- 68.6 85.0
06/27/2019 22:00 457.42 0.00 -- 71.1 85.0
06/27/2019 21:00 457.42 0.00 -- 76.5 85.3
06/27/2019 20:00 457.43 0.00 -- 80.5 86.0
06/27/2019 19:00 457.43 0.00 -- 84.2 86.0
06/27/2019 18:00 457.43 0.00 -- 83.5 86.3
06/27/2019 17:00 457.44 0.00 -- 83.8 86.3
06/27/2019 16:00 457.44 0.00 -- 82.4 86.5
06/27/2019 15:00 457.43 0.00 -- 81.3 87.0
06/27/2019 14:00 457.44 0.00 -- 78.6 86.5
06/27/2019 13:00 457.43 0.00 -- 74.1 86.5
06/27/2019 12:00 457.43 0.00 -- 69.0 86.5
06/27/2019 11:00 457.43 0.00 -- 67.2 86.0
06/27/2019 10:00 457.43 0.00 -- 66.3 87.0
06/27/2019 09:00 457.43 0.00 -- 64.4 87.0
06/27/2019 08:00 457.44 0.00 -- 62.9 87.0
06/27/2019 07:00 457.44 0.00 -- 61.9 87.5
06/27/2019 06:00 457.44 0.00 -- 61.2 88.0
06/27/2019 05:00 457.44 0.00 -- 62.1 88.3
06/27/2019 04:00 457.45 0.01 -- 63.0 88.0
06/27/2019 03:00 457.45 0.00 -- 64.1 88.0
06/27/2019 02:00 457.44 0.02 -- 66.0 87.5
06/27/2019 01:00 457.44 0.07 -- 66.8 86.3
06/27/2019 00:00 457.43 0.00 0.10 68.9 85.8
06/26/2019 23:00 457.43 0.00 -- 70.0 86.0
06/26/2019 22:00 457.43 0.00 -- 72.1 86.0
06/26/2019 21:00 457.43 0.00 -- 74.7 85.8
06/26/2019 20:00 457.43 0.00 -- 79.9 86.5
06/26/2019 19:00 457.44 0.00 -- 83.0 86.0
06/26/2019 18:00 457.43 0.00 -- 82.9 85.8
06/26/2019 17:00 457.43 0.00 -- 83.0 85.5
06/26/2019 16:00 457.42 0.00 -- 82.9 85.0
06/26/2019 15:00 457.42 0.00 -- 79.1 84.0
06/26/2019 14:00 457.41 0.00 -- 78.6 84.0
06/26/2019 13:00 457.41 0.00 -- 72.8 82.5
06/26/2019 12:00 457.40 0.00 -- 68.9 81.3
06/26/2019 11:00 457.39 0.00 -- 66.5 80.3
06/26/2019 10:00 457.39 0.00 -- 63.7 79.3
06/26/2019 09:00 457.38 0.00 -- 62.8 78.5
06/26/2019 08:00 457.37 0.00 -- 62.2 77.3
06/26/2019 07:00 457.36 0.00 -- 62.4 76.5
06/26/2019 06:00 457.35 0.00 -- 61.7 74.8
06/26/2019 05:00 457.34 0.00 -- 61.8 73.5
06/26/2019 04:00 457.33 0.00 -- 61.8 72.5
06/26/2019 03:00 457.33 0.00 -- 61.6 71.3
06/26/2019 02:00 457.31 0.00 -- 62.1 70.0
06/26/2019 01:00 457.31 0.00 -- 61.7 68.8
06/26/2019 00:00 457.30 0.00 0.00 62.8 68.0
06/25/2019 23:00 457.29 0.00 -- 62.9 67.3
06/25/2019 22:00 457.29 0.10 -- 62.7 66.3
06/25/2019 21:00 457.28 0.18 -- 62.7 64.8
06/25/2019 20:00 457.26 0.08 -- 63.2 62.8
06/25/2019 19:00 457.25 0.24 -- 63.1 61.3
06/25/2019 18:00 457.23 0.16 -- 63.6 59.3
06/25/2019 17:00 457.22 0.02 -- 64.2 58.0
06/25/2019 16:00 457.22 0.01 -- 65.3 58.0
06/25/2019 15:00 457.22 0.02 -- 64.9 58.0
06/25/2019 14:00 457.22 0.00 -- 68.1 58.0
06/25/2019 13:00 457.22 0.00 -- 68.6 58.0
06/25/2019 12:00 457.22 0.00 -- 68.1 58.0
06/25/2019 11:00 457.22 0.00 -- 67.5 58.0
06/25/2019 10:00 457.23 0.00 -- 64.0 59.0
06/25/2019 09:00 457.22 0.00 -- 61.4 59.0
06/25/2019 08:00 457.23 0.00 -- 56.0 59.0
06/25/2019 07:00 457.23 0.00 -- 51.9 60.0
06/25/2019 06:00 457.24 0.00 -- 51.3 60.0
06/25/2019 05:00 457.24 0.00 -- 53.2 60.5
06/25/2019 04:00 457.24 0.00 -- 53.9 61.0
06/25/2019 03:00 457.25 0.00 -- 55.1 62.0
06/25/2019 02:00 457.25 0.00 -- 57.3 62.0
06/25/2019 01:00 457.26 0.00 -- 59.1 62.8
06/25/2019 00:00 457.26 0.00 0.81 60.6 63.0
06/24/2019 23:00 457.26 0.00 -- 63.2 63.3
06/24/2019 22:00 457.27 0.00 -- 69.5 64.0
06/24/2019 21:00 457.26 0.00 -- 73.5 63.8
06/24/2019 20:00 457.27 0.00 -- 78.8 64.0
06/24/2019 19:00 457.27 0.00 -- 81.0 64.8
06/24/2019 18:00 457.28 0.00 -- 83.7 64.8
06/24/2019 17:00 457.27 0.00 -- 81.9 65.3
06/24/2019 16:00 457.28 0.00 -- 81.7 64.8
06/24/2019 15:00 457.28 0.00 -- 81.8 65.5
06/24/2019 14:00 457.28 0.00 -- 78.8 66.8
06/24/2019 13:00 457.29 0.00 -- 78.7 67.5
06/24/2019 12:00 457.29 0.00 -- 77.8 67.3
06/24/2019 11:00 457.29 0.00 -- 74.3 67.3
06/24/2019 10:00 457.30 0.00 -- 71.4 68.3
06/24/2019 09:00 457.30 0.00 -- 65.9 68.5
06/24/2019 08:00 457.30 0.00 -- 58.9 69.0
06/24/2019 07:00 457.31 0.00 -- 54.9 69.8
06/24/2019 06:00 457.31 0.00 -- 53.8 70.0
06/24/2019 05:00 457.32 0.00 -- 55.6 70.8
06/24/2019 04:00 457.32 0.00 -- 58.6 71.3
06/24/2019 03:00 457.33 0.00 -- 62.3 72.5
06/24/2019 02:00 457.33 0.00 -- 63.1 73.0
06/24/2019 01:00 457.34 0.00 -- 65.4 73.5
06/24/2019 00:00 457.34 0.00 0.00 68.9 74.8
06/23/2019 23:00 457.35 0.00 -- 75.2 75.8
06/23/2019 22:00 457.35 0.00 -- 74.7 76.0
06/23/2019 21:00 457.36 0.00 -- 76.5 76.5
06/23/2019 20:00 457.36 0.00 -- 79.0 77.0
06/23/2019 19:00 457.36 0.00 -- 79.7 78.5
06/23/2019 18:00 457.37 0.00 -- 83.6 78.3
06/23/2019 17:00 457.38 0.00 -- 82.9 78.5
06/23/2019 16:00 457.38 0.00 -- 82.6 78.8
06/23/2019 15:00 457.39 0.00 -- 81.8 80.5
06/23/2019 14:00 457.40 0.00 -- 81.1 81.3
06/23/2019 13:00 457.40 0.00 -- 77.4 83.5
06/23/2019 12:00 457.41 0.00 -- 77.4 83.0
06/23/2019 11:00 457.41 0.00 -- 75.9 84.3
06/23/2019 10:00 457.42 0.00 -- 72.1 85.5
06/23/2019 09:00 457.42 0.00 -- 67.6 85.5
06/23/2019 08:00 457.43 0.00 -- 59.8 86.3
06/23/2019 07:00 457.44 0.00 -- 56.1 87.0
06/23/2019 06:00 457.44 0.00 -- 56.2 88.8
06/23/2019 05:00 457.46 0.00 -- 59.8 90.0
06/23/2019 04:00 457.46 0.00 -- 64.2 91.5
06/23/2019 03:00 457.47 0.00 -- 65.5 92.0
06/23/2019 02:00 457.47 0.00 -- 62.0 92.8
06/23/2019 01:00 457.48 0.00 -- 63.3 94.0
06/23/2019 00:00 457.49 0.00 0.00 66.9 95.3
06/22/2019 23:00 457.50 0.00 -- 67.5 96.5
06/22/2019 22:00 457.51 0.00 -- 68.9 97.8
06/22/2019 21:00 457.51 0.00 -- 72.1 98.8
06/22/2019 20:00 457.51 0.00 -- 74.0 100.5
06/22/2019 19:00 457.54 0.00 -- 75.3 102.0
06/22/2019 18:00 457.55 0.00 -- 76.6 102.5
06/22/2019 17:00 457.55 0.00 -- 75.7 105.0
06/22/2019 16:00 457.55 0.00 -- 76.5 105.3
06/22/2019 15:00 457.56 0.00 -- 76.3 105.0
06/22/2019 14:00 457.58 0.00 -- 76.6 107.3
06/22/2019 13:00 457.57 0.00 -- 75.1 107.5
06/22/2019 12:00 457.57 0.00 -- 74.0 109.3
06/22/2019 11:00 457.59 0.00 -- 70.9 111.5
06/22/2019 10:00 457.61 0.00 -- 71.1 113.5
06/22/2019 09:00 457.61 0.00 -- 65.3 114.0
06/22/2019 08:00 457.62 0.00 -- 57.5 115.0
06/22/2019 07:00 457.63 0.00 -- 56.7 116.5
06/22/2019 06:00 457.64 0.00 -- 56.7 117.5
06/22/2019 05:00 457.65 0.00 -- 61.0 119.5
06/22/2019 04:00 457.66 0.00 -- 61.6 122.0
06/22/2019 03:00 457.66 0.00 -- 60.9 122.0
06/22/2019 02:00 457.67 0.00 -- 60.3 124.0
06/22/2019 01:00 457.69 0.00 -- 61.3 125.5
06/22/2019 00:00 457.69 0.00 0.00 62.2 130.0
06/21/2019 23:00 457.69 0.00 -- 63.1 129.8
06/21/2019 22:00 457.70 0.00 -- 64.8 130.5
06/21/2019 21:00 457.70 0.00 -- 67.0 131.5
06/21/2019 20:00 457.71 0.00 -- 69.8 132.5
06/21/2019 19:00 457.71 0.00 -- 72.8 133.3
06/21/2019 18:00 457.71 0.00 -- 74.7 131.8
06/21/2019 17:00 457.70 0.00 -- 68.6 131.5
06/21/2019 16:00 457.71 0.00 -- 71.0 132.0
06/21/2019 15:00 457.70 0.00 -- 69.0 131.8
06/21/2019 14:00 457.70 0.00 -- 67.5 131.5
06/21/2019 13:00 457.69 0.00 -- 69.3 128.3
06/21/2019 12:00 457.69 0.00 -- 68.1 127.5
06/21/2019 11:00 457.69 0.00 -- 63.6 124.0
06/21/2019 10:00 457.67 0.00 -- 61.2 121.3
06/21/2019 09:00 457.65 0.00 -- 60.2 118.8
06/21/2019 08:00 457.63 0.01 -- 59.2 116.0
06/21/2019 07:00 457.62 0.00 -- 58.0 113.5
06/21/2019 06:00 457.60 0.00 -- 58.2 110.5
06/21/2019 05:00 457.58 0.00 -- 58.5 106.5
06/21/2019 04:00 457.55 0.00 -- 59.1 103.0
06/21/2019 03:00 457.53 0.00 -- 59.3 98.8
06/21/2019 02:00 457.50 0.00 -- 59.3 94.3
06/21/2019 01:00 457.47 0.04 -- 59.1 90.3
06/21/2019 00:00 457.44 0.01 0.05 59.7 85.5
06/20/2019 23:00 457.40 0.02 -- 59.3 80.8
06/20/2019 22:00 457.38 0.00 -- 59.6 76.8
06/20/2019 21:00 457.35 0.01 -- 60.4 73.0
06/20/2019 20:00 457.32 0.04 -- 60.0 69.5
06/20/2019 19:00 457.29 0.35 -- 60.3 65.0
06/20/2019 18:00 -- -- -- 59.9 59.3
06/20/2019 17:00 -- -- -- 60.9 55.3
06/20/2019 16:00 -- -- -- 62.0 53.0
06/20/2019 15:00 -- -- -- 62.7 51.0
06/20/2019 14:00 -- -- -- 63.1 50.0
06/20/2019 13:00 -- -- -- 63.4 49.0
06/20/2019 12:00 -- -- -- 63.5 49.0
06/20/2019 11:00 -- -- -- 63.7 49.0
06/20/2019 10:00 -- -- -- 63.8 49.0
06/20/2019 09:00 -- -- -- 64.0 49.3
06/20/2019 08:00 -- -- -- 63.3 49.5
06/20/2019 07:00 -- -- -- 63.4 50.0
06/20/2019 06:00 -- -- -- 63.5 50.0
06/20/2019 05:00 -- -- -- 64.6 50.0
06/20/2019 04:00 -- -- -- 64.3 50.0
06/20/2019 03:00 -- -- -- 65.0 50.5
06/20/2019 02:00 -- -- -- 66.2 51.0
06/20/2019 01:00 -- -- -- 67.7 51.0
06/20/2019 00:00 -- -- 1.52 68.5 51.0